DW8690 Weather Reports


Display with metric or nautical units.
time (UTC)temp
F
wind
direction
speed
MPH
gust
MPH
rain 1hr
in
rain 24hr
in
rain mn
in
humidity
%
barometer
mb
20260902000905 78 253 14.0 21.0 0.00 0.00 0.00 10 1006.7
20260902000806 78 256 15.0 21.0 0.00 0.00 0.00 10 1006.8
20260902000705 78 269 11.0 21.0 0.00 0.00 0.00 10 1006.8
20260902000605 78 269 12.0 21.0 0.00 0.00 0.00 10 1006.8
20260902000406 78 274 11.0 21.0 0.00 0.00 0.00 10 1006.7
20260902000305 78 275 11.0 21.0 0.00 0.00 0.00 10 1006.7
20260902000205 78 271 11.0 21.0 0.00 0.00 0.00 10 1006.7
20260902000105 78 261 11.0 21.0 0.00 0.00 0.00 10 1006.7
20260902000005 78 249 11.0 21.0 0.00 0.00 0.00 10 1006.7
20260901235905 79 238 13.0 21.0 0.00 0.00 0.00 10 1006.7
20260901235805 79 237 13.0 21.0 0.00 0.00 0.00 10 1006.7
20260901235705 79 231 10.0 23.0 0.00 0.00 0.00 10 1006.8
20260901235605 79 231 11.0 23.0 0.00 0.00 0.00 10 1006.8
20260901235505 79 231 12.0 23.0 0.00 0.00 0.00 10 1006.6
20260901235405 79 230 15.0 23.0 0.00 0.00 0.00 10 1006.8
20260901235307 79 229 11.0 23.0 0.00 0.00 0.00 10 1006.8
20260901235205 79 241 12.0 23.0 0.00 0.00 0.00 10 1006.8
20260901235105 79 246 11.0 23.0 0.00 0.00 0.00 10 1006.8
20260901235005 79 253 14.0 23.0 0.00 0.00 0.00 10 1006.8
20260901234905 79 254 11.0 23.0 0.00 0.00 0.00 10 1006.8
20260901234805 79 255 12.0 23.0 0.00 0.00 0.00 10 1006.8
20260901234705 80 257 16.0 23.0 0.00 0.00 0.00 10 1006.8
20260901234605 80 251 13.0 23.0 0.00 0.00 0.00 10 1006.8
20260901234505 80 240 13.0 23.0 0.00 0.00 0.00 10 1006.8
20260901234405 80 237 9.0 23.0 0.00 0.00 0.00 10 1006.7
20260901234305 80 241 13.0 23.0 0.00 0.00 0.00 10 1006.8
20260901234205 80 235 11.0 23.0 0.00 0.00 0.00 10 1006.7
20260901234105 80 233 11.0 23.0 0.00 0.00 0.00 10 1006.8
20260901234006 80 226 14.0 23.0 0.00 0.00 0.00 10 1006.7
20260901233905 80 225 11.0 24.0 0.00 0.00 0.00 10 1006.8
20260901233806 80 225 14.0 24.0 0.00 0.00 0.00 10 1006.8
20260901233705 81 231 17.0 24.0 0.00 0.00 0.00 10 1006.7
20260901233605 81 244 15.0 24.0 0.00 0.00 0.00 10 1006.7
20260901233505 81 254 13.0 24.0 0.00 0.00 0.00 10 1006.7
20260901233405 81 258 11.0 24.0 0.00 0.00 0.00 10 1006.7
20260901233305 81 253 11.0 24.0 0.00 0.00 0.00 10 1006.6
20260901233205 81 250 15.0 24.0 0.00 0.00 0.00 10 1006.7
20260901233105 82 245 15.0 24.0 0.00 0.00 0.00 10 1006.8
20260901232605 82 237 10.0 24.0 0.00 0.00 0.00 10 1006.8
20260901232505 82 232 14.0 24.0 0.00 0.00 0.00 10 1006.7
20260901232405 82 229 12.0 24.0 0.00 0.00 0.00 10 1006.7
20260901232306 82 229 14.0 22.0 0.00 0.00 0.00 10 1006.6
20260901232205 82 229 14.0 22.0 0.00 0.00 0.00 10 1006.6
20260901232105 82 229 14.0 22.0 0.00 0.00 0.00 10 1006.8
20260901232006 82 234 15.0 22.0 0.00 0.00 0.00 10 1006.7
20260901231905 83 236 13.0 22.0 0.00 0.00 0.00 10 1006.8
20260901231806 83 237 12.0 22.0 0.00 0.00 0.00 10 1006.8
20260901231705 83 234 15.0 22.0 0.00 0.00 0.00 10 1006.7
20260901231605 82 234 11.0 20.0 0.00 0.00 0.00 10 1006.6
20260901231505 82 238 11.0 23.0 0.00 0.00 0.00 10 1006.7
20260901225205 84 240 13.0 28.0 0.00 0.00 0.00 10 1006.7
20260901225105 84 243 9.0 28.0 0.00 0.00 0.00 10 1006.7
20260901225005 84 251 12.0 28.0 0.00 0.00 0.00 10 1006.7
20260901224905 84 253 11.0 28.0 0.00 0.00 0.00 10 1006.7
20260901224805 84 254 13.0 28.0 0.00 0.00 0.00 10 1006.7
20260901224705 84 261 21.0 28.0 0.00 0.00 0.00 10 1006.7
20260901224605 84 260 13.0 24.0 0.00 0.00 0.00 10 1006.7
20260901224405 84 240 11.0 24.0 0.00 0.00 0.00 10 1006.6
20260901224305 84 239 11.0 24.0 0.00 0.00 0.00 10 1006.7
20260901224205 84 237 14.0 24.0 0.00 0.00 0.00 10 1006.7
20260901224105 84 233 16.0 24.0 0.00 0.00 0.00 10 1006.6
20260901224005 84 227 16.0 23.0 0.00 0.00 0.00 10 1006.6
20260901223905 84 225 11.0 21.0 0.00 0.00 0.00 10 1006.4
20260901223805 84 229 7.0 21.0 0.00 0.00 0.00 10 1006.6
20260901223704 84 235 8.0 21.0 0.00 0.00 0.00 10 1006.6
20260901223605 84 241 11.0 21.0 0.00 0.00 0.00 10 1006.6
20260901223505 84 246 14.0 21.0 0.00 0.00 0.00 10 1006.7
20260901223405 84 251 10.0 21.0 0.00 0.00 0.00 10 1006.7
20260901223305 84 252 12.0 21.0 0.00 0.00 0.00 10 1006.7
20260901223205 84 249 13.0 21.0 0.00 0.00 0.00 10 1006.6
20260901223105 84 249 11.0 21.0 0.00 0.00 0.00 10 1006.6
20260901223006 84 253 11.0 21.0 0.00 0.00 0.00 10 1006.5
20260901222905 84 250 11.0 21.0 0.00 0.00 0.00 10 1006.6
20260901222805 84 249 12.0 21.0 0.00 0.00 0.00 10 1006.6
20260901222705 84 245 13.0 20.0 0.00 0.00 0.00 10 1006.7
20260901222605 84 237 11.0 20.0 0.00 0.00 0.00 10 1006.7
20260901222505 84 233 11.0 20.0 0.00 0.00 0.00 10 1006.7
20260901222405 84 229 11.0 20.0 0.00 0.00 0.00 10 1006.7
20260901222306 83 230 13.0 20.0 0.00 0.00 0.00 10 1006.6
20260901222205 83 243 14.0 19.0 0.00 0.00 0.00 10 1006.8
20260901222105 84 246 11.0 19.0 0.00 0.00 0.00 10 1006.7
20260901222005 84 242 10.0 17.0 0.00 0.00 0.00 10 1006.7
20260901221905 84 250 9.0 16.0 0.00 0.00 0.00 10 1006.8
20260901221805 84 248 8.0 16.0 0.00 0.00 0.00 10 1006.8
20260901221705 84 245 7.0 18.0 0.00 0.00 0.00 10 1006.9
20260901221605 84 244 10.0 18.0 0.00 0.00 0.00 10 1006.9
20260901221505 84 250 10.0 18.0 0.00 0.00 0.00 10 1006.9
20260901221405 85 249 10.0 18.0 0.00 0.00 0.00 10 1006.9
20260901221305 85 240 11.0 18.0 0.00 0.00 0.00 10 1006.9
20260901221205 85 229 9.0 18.0 0.00 0.00 0.00 10 1007.0
20260901220605 84 216 10.0 19.0 0.00 0.00 0.00 10 1007.0
20260901220505 84 210 10.0 19.0 0.00 0.00 0.00 10 1006.9
20260901220405 84 206 10.0 19.0 0.00 0.00 0.00 10 1006.9
20260901220305 85 210 9.0 19.0 0.00 0.00 0.00 10 1006.9
20260901220205 85 215 7.0 19.0 0.00 0.00 0.00 10 1007.0
20260901220105 85 222 11.0 19.0 0.00 0.00 0.00 10 1006.9
20260901220005 85 231 11.0 19.0 0.00 0.00 0.00 10 1006.9
20260901215904 85 233 10.0 19.0 0.00 0.00 0.00 10 1006.9
20260901215805 85 236 10.0 19.0 0.00 0.00 0.00 10 1007.0
20260901215705 85 234 11.0 17.0 0.00 0.00 0.00 10 1006.9
20260901215605 85 228 10.0 17.0 0.00 0.00 0.00 10 1007.0
20260901215505 85 232 10.0 17.0 0.00 0.00 0.00 10 1006.9
20260901215005 85 233 9.0 15.0 0.00 0.00 0.00 10 1007.0
20260901214905 85 239 8.0 15.0 0.00 0.00 0.00 10 1007.0
20260901214805 85 245 8.0 17.0 0.00 0.00 0.00 10 1007.0
20260901214705 85 250 6.0 17.0 0.00 0.00 0.00 10 1006.9
20260901214605 85 248 4.0 17.0 0.00 0.00 0.00 10 1007.0
20260901214505 84 248 9.0 17.0 0.00 0.00 0.00 10 1007.0
20260901213905 85 253 11.0 17.0 0.00 0.00 0.00 10 1007.0
20260901213805 84 255 6.0 15.0 0.00 0.00 0.00 10 1007.1
20260901213704 84 260 11.0 15.0 0.00 0.00 0.00 10 1007.0
20260901213605 84 259 8.0 15.0 0.00 0.00 0.00 10 1007.0
20260901213505 84 259 6.0 15.0 0.00 0.00 0.00 10 1007.0
20260901213404 84 248 6.0 16.0 0.00 0.00 0.00 10 1007.0
20260901213305 84 242 11.0 17.0 0.00 0.00 0.00 10 1007.1
20260901213205 84 241 7.0 17.0 0.00 0.00 0.00 10 1007.0
20260901213104 84 239 5.0 17.0 0.00 0.00 0.00 10 1007.0
20260901213005 84 240 8.0 17.0 0.00 0.00 0.00 10 1007.2
20260901212905 84 238 4.0 17.0 0.00 0.00 0.00 10 1007.2
20260901212806 84 232 8.0 17.0 0.00 0.00 0.00 10 1007.3
20260901212705 84 222 12.0 17.0 0.00 0.00 0.00 10 1007.2
20260901212605 84 222 8.0 17.0 0.00 0.00 0.00 10 1007.1
20260901212505 84 226 8.0 17.0 0.00 0.00 0.00 10 1007.2
20260901212405 85 240 11.0 17.0 0.00 0.00 0.00 10 1007.3
20260901212306 85 249 9.0 16.0 0.00 0.00 0.00 10 1007.2
20260901212205 85 256 8.0 17.0 0.00 0.00 0.00 10 1007.2
20260901211805 85 251 8.0 18.0 0.00 0.00 0.00 10 1007.1
20260901211704 85 249 8.0 18.0 0.00 0.00 0.00 10 1007.2
20260901211604 85 245 8.0 18.0 0.00 0.00 0.00 10 1007.2
20260901211505 85 248 8.0 18.0 0.00 0.00 0.00 10 1007.2
20260901211404 85 244 13.0 18.0 0.00 0.00 0.00 10 1007.3
20260901211305 85 245 11.0 20.0 0.00 0.00 0.00 10 1007.2
20260901211204 85 249 11.0 20.0 0.00 0.00 0.00 10 1007.2
20260901211104 85 259 8.0 20.0 0.00 0.00 0.00 10 1007.2
20260901211004 85 268 9.0 20.0 0.00 0.00 0.00 10 1007.2
20260901210905 85 277 12.0 20.0 0.00 0.00 0.00 10 1007.2
20260901210804 84 278 11.0 20.0 0.00 0.00 0.00 10 1007.3
20260901210605 85 274 8.0 20.0 0.00 0.00 0.00 10 1007.3
20260901210504 85 265 11.0 20.0 0.00 0.00 0.00 10 1007.3
20260901210404 85 263 15.0 20.0 0.00 0.00 0.00 10 1007.4
20260901210305 85 277 11.0 17.0 0.00 0.00 0.00 10 1007.3
20260901210204 85 274 11.0 17.0 0.00 0.00 0.00 10 1007.4
20260901210104 86 259 7.0 17.0 0.00 0.00 0.00 10 1007.4
20260901205604 85 243 10.0 17.0 0.00 0.00 0.00 10 1007.4
20260901205504 85 243 11.0 17.0 0.00 0.00 0.00 10 1007.5
20260901205405 85 243 9.0 17.0 0.00 0.00 0.00 10 1007.4
20260901205306 85 232 9.0 17.0 0.00 0.00 0.00 10 1007.4
20260901205205 85 231 9.0 17.0 0.00 0.00 0.00 10 1007.4
20260901205104 84 236 9.0 17.0 0.00 0.00 0.00 10 1007.5
20260901205004 84 236 8.0 18.0 0.00 0.00 0.00 10 1007.5
20260901204505 84 227 7.0 18.0 0.00 0.00 0.00 10 1007.6
20260901204404 84 228 6.0 18.0 0.00 0.00 0.00 10 1007.5
20260901204305 84 236 10.0 18.0 0.00 0.00 0.00 10 1007.5
20260901204204 84 236 12.0 18.0 0.00 0.00 0.00 10 1007.4
20260901204104 84 224 10.0 18.0 0.00 0.00 0.00 10 1007.6
20260901204005 84 224 11.0 18.0 0.00 0.00 0.00 10 1007.6
20260901203804 84 233 3.0 15.0 0.00 0.00 0.00 10 1007.6
20260901203705 84 239 4.0 15.0 0.00 0.00 0.00 10 1007.6
20260901203604 84 240 2.0 15.0 0.00 0.00 0.00 10 1007.7
20260901203504 84 239 6.0 15.0 0.00 0.00 0.00 10 1007.8
20260901203404 84 242 3.0 15.0 0.00 0.00 0.00 10 1007.7
20260901203304 84 238 4.0 15.0 0.00 0.00 0.00 10 1007.9
20260901203204 84 239 3.0 15.0 0.00 0.00 0.00 10 1007.8
20260901203105 84 247 9.0 15.0 0.00 0.00 0.00 10 1007.8
20260901203004 84 250 9.0 15.0 0.00 0.00 0.00 10 1007.8
20260901202905 84 237 11.0 15.0 0.00 0.00 0.00 10 1007.7
20260901202804 84 232 11.0 14.0 0.00 0.00 0.00 10 1007.7
20260901202704 84 200 3.0 8.0 0.00 0.00 0.00 10 1007.7
20260901202105 83 207 5.0 15.0 0.00 0.00 0.00 10 1007.9
20260901202004 83 202 2.0 15.0 0.00 0.00 0.00 10 1007.8
20260901201905 83 209 2.0 15.0 0.00 0.00 0.00 10 1007.9
20260901201804 83 210 4.0 15.0 0.00 0.00 0.00 10 1008.0
20260901201705 83 215 5.0 16.0 0.00 0.00 0.00 10 1008.0
20260901201604 83 219 8.0 16.0 0.00 0.00 0.00 10 1008.0
20260901201504 83 228 8.0 16.0 0.00 0.00 0.00 10 1008.1
20260901201005 83 229 6.0 16.0 0.00 0.00 0.00 10 1008.1
20260901200904 83 229 7.0 16.0 0.00 0.00 0.00 10 1008.1
20260901200804 83 227 8.0 16.0 0.00 0.00 0.00 10 1008.1
20260901200704 84 230 9.0 16.0 0.00 0.00 0.00 10 1008.1
20260901200604 84 229 8.0 16.0 0.00 0.00 0.00 10 1008.1
20260901200005 83 237 9.0 16.0 0.00 0.00 0.00 10 1008.1
20260901195904 83 239 9.0 15.0 0.00 0.00 0.00 10 1008.1
20260901195805 83 243 8.0 15.0 0.00 0.00 0.00 10 1008.2
20260901195704 83 240 9.0 15.0 0.00 0.00 0.00 10 1008.3
20260901195605 83 245 8.0 15.0 0.00 0.00 0.00 10 1008.2
20260901195504 83 239 8.0 15.0 0.00 0.00 0.00 10 1008.3
20260901195404 83 236 5.0 15.0 0.00 0.00 0.00 10 1008.3
20260901195306 83 229 6.0 15.0 0.00 0.00 0.00 10 1008.3
20260901195204 83 231 7.0 15.0 0.00 0.00 0.00 10 1008.4
20260901195105 83 234 8.0 15.0 0.00 0.00 0.00 10 1008.3
20260901195004 83 232 7.0 16.0 0.00 0.00 0.00 10 1008.4
20260901194805 83 228 9.0 16.0 0.00 0.00 0.00 10 1008.4
20260901194704 83 226 6.0 16.0 0.00 0.00 0.00 10 1008.4
20260901194605 83 226 5.0 16.0 0.00 0.00 0.00 10 1008.5
20260901194504 83 229 5.0 16.0 0.00 0.00 0.00 10 1008.4
20260901194405 83 227 5.0 16.0 0.00 0.00 0.00 10 1008.5
20260901194304 83 228 2.0 16.0 0.00 0.00 0.00 10 1008.5
20260901194204 83 227 7.0 16.0 0.00 0.00 0.00 10 1008.5
20260901194105 83 228 6.0 16.0 0.00 0.00 0.00 10 1008.5
20260901194004 83 229 11.0 16.0 0.00 0.00 0.00 10 1008.6
20260901193905 83 235 8.0 15.0 0.00 0.00 0.00 10 1008.5
20260901193804 83 233 9.0 15.0 0.00 0.00 0.00 10 1008.5
20260901193705 83 226 7.0 14.0 0.00 0.00 0.00 10 1008.5
20260901193604 83 181 7.0 14.0 0.00 0.00 0.00 10 1008.5
20260901193504 83 150 3.0 8.0 0.00 0.00 0.00 10 1008.7
20260901193404 83 145 4.0 8.0 0.00 0.00 0.00 10 1008.5
20260901193305 83 194 2.0 8.0 0.00 0.00 0.00 10 1008.6
20260901193204 83 84 4.0 8.0 0.00 0.00 0.00 10 1008.6
20260901193104 84 79 2.0 8.0 0.00 0.00 0.00 10 1008.5
20260901193004 84 88 2.0 8.0 0.00 0.00 0.00 10 1008.6
20260901192904 84 93 4.0 8.0 0.00 0.00 0.00 10 1008.6
20260901192804 83 85 2.0 8.0 0.00 0.00 0.00 10 1008.6
20260901192306 83 81 4.0 9.0 0.00 0.00 0.00 10 1008.6
20260901192205 83 84 4.0 10.0 0.00 0.00 0.00 10 1008.6
20260901192105 83 86 3.0 10.0 0.00 0.00 0.00 10 1008.7
20260901192004 83 87 4.0 10.0 0.00 0.00 0.00 10 1008.7
20260901191904 83 85 4.0 10.0 0.00 0.00 0.00 10 1008.7
20260901191804 83 85 4.0 10.0 0.00 0.00 0.00 10 1008.5
20260901191704 83 88 2.0 10.0 0.00 0.00 0.00 10 1008.5
20260901191604 83 90 4.0 10.0 0.00 0.00 0.00 10 1008.6
20260901191504 83 90 4.0 10.0 0.00 0.00 0.00 10 1008.5
20260901191404 83 90 6.0 10.0 0.00 0.00 0.00 10 1008.6
20260901191305 84 89 4.0 11.0 0.00 0.00 0.00 10 1008.7
20260901191204 84 87 8.0 11.0 0.00 0.00 0.00 10 1008.7
20260901191104 84 89 2.0 11.0 0.00 0.00 0.00 10 1008.7
20260901191005 83 89 1.0 11.0 0.00 0.00 0.00 10 1008.8
20260901190904 83 95 2.0 11.0 0.00 0.00 0.00 10 1008.6
20260901190804 83 104 2.0 11.0 0.00 0.00 0.00 10 1008.7
20260901190705 83 108 5.0 11.0 0.00 0.00 0.00 10 1008.8
20260901190604 83 106 2.0 11.0 0.00 0.00 0.00 10 1008.8
20260901190505 83 102 2.0 11.0 0.00 0.00 0.00 10 1008.8
20260901190405 83 104 2.0 11.0 0.00 0.00 0.00 10 1008.9
20260901190304 83 110 1.0 10.0 0.00 0.00 0.00 10 1008.9
20260901190205 83 116 3.0 10.0 0.00 0.00 0.00 10 1008.9
20260901190105 83 140 2.0 10.0 0.00 0.00 0.00 10 1008.9
20260901190004 83 221 2.0 11.0 0.00 0.00 0.00 10 1008.9
20260901185904 82 248 2.0 11.0 0.00 0.00 0.00 10 1009.0
20260901185805 82 251 2.0 11.0 0.00 0.00 0.00 10 1008.9
20260901185704 82 247 3.0 11.0 0.00 0.00 0.00 10 1008.9
20260901185604 82 238 5.0 11.0 0.00 0.00 0.00 10 1008.9
20260901185505 81 222 4.0 11.0 0.00 0.00 0.00 10 1008.9
20260901185404 81 211 2.0 14.0 0.00 0.00 0.00 10 1009.0
20260901185306 81 205 2.0 14.0 0.00 0.00 0.00 10 1008.9
20260901185205 81 194 2.0 14.0 0.00 0.00 0.00 10 1009.0
20260901185104 82 183 6.0 14.0 0.00 0.00 0.00 10 1009.1
20260901185004 82 156 7.0 14.0 0.00 0.00 0.00 10 1008.9
20260901184905 82 136 6.0 14.0 0.00 0.00 0.00 10 1009.0
20260901184804 82 121 4.0 14.0 0.00 0.00 0.00 10 1009.1
20260901184305 82 117 3.0 8.0 0.00 0.00 0.00 10 1009.1
20260901184204 82 110 4.0 8.0 0.00 0.00 0.00 10 1009.1
20260901184105 82 108 5.0 8.0 0.00 0.00 0.00 10 1009.1
20260901184004 82 115 2.0 6.0 0.00 0.00 0.00 10 1009.2
20260901183905 82 105 2.0 6.0 0.00 0.00 0.00 10 1009.2
20260901183804 82 115 1.0 6.0 0.00 0.00 0.00 10 1009.3
20260901183704 82 108 1.0 6.0 0.00 0.00 0.00 10 1009.0
20260901183605 82 99 1.0 10.0 0.00 0.00 0.00 10 1009.1
20260901183504 82 92 1.0 14.0 0.00 0.00 0.00 10 1009.2
20260901183404 81 90 2.0 14.0 0.00 0.00 0.00 10 1009.2
20260901183305 81 94 4.0 14.0 0.00 0.00 0.00 10 1009.2
20260901183204 81 102 2.0 14.0 0.00 0.00 0.00 10 1009.2
20260901182605 81 102 8.0 14.0 0.00 0.00 0.00 10 1009.2
20260901182504 81 105 10.0 14.0 0.00 0.00 0.00 10 1009.3
20260901182405 81 111 4.0 9.0 0.00 0.00 0.00 10 1009.2
20260901182305 81 113 3.0 9.0 0.00 0.00 0.00 10 1009.2
20260901182205 81 107 4.0 9.0 0.00 0.00 0.00 10 1009.3
20260901182104 81 125 2.0 9.0 0.00 0.00 0.00 10 1009.3
20260901182005 81 133 4.0 9.0 0.00 0.00 0.00 10 1009.3
20260901181404 81 157 2.0 7.0 0.00 0.00 0.00 10 1009.4
20260901181304 81 118 2.0 7.0 0.00 0.00 0.00 10 1009.4
20260901181204 81 107 2.0 8.0 0.00 0.00 0.00 10 1009.2
20260901181104 81 104 1.0 8.0 0.00 0.00 0.00 10 1009.3
20260901181004 81 106 1.0 8.0 0.00 0.00 0.00 10 1009.4
20260901180905 81 108 1.0 8.0 0.00 0.00 0.00 10 1009.4
20260901180304 80 128 3.0 8.0 0.00 0.00 0.00 10 1009.4
20260901175705 79 220 2.0 8.0 0.00 0.00 0.00 10 1009.4
20260901175604 79 221 1.0 8.0 0.00 0.00 0.00 10 1009.4
20260901175504 79 219 2.0 8.0 0.00 0.00 0.00 10 1009.4
20260901175405 79 211 4.0 8.0 0.00 0.00 0.00 10 1009.4
20260901175305 79 205 3.0 8.0 0.00 0.00 0.00 10 1009.5
20260901175205 79 201 3.0 8.0 0.00 0.00 0.00 10 1009.4
20260901175104 80 200 3.0 8.0 0.00 0.00 0.00 10 1009.4
20260901175005 80 187 4.0 8.0 0.00 0.00 0.00 10 1009.5
20260901174904 80 184 5.0 8.0 0.00 0.00 0.00 10 1009.3
20260901174805 80 169 6.0 8.0 0.00 0.00 0.00 10 1009.4
20260901174704 80 160 5.0 8.0 0.00 0.00 0.00 10 1009.4
20260901174006 80 140 4.0 8.0 0.00 0.00 0.00 10 1009.5
20260901173905 80 124 1.0 7.0 0.00 0.00 0.00 10 1009.3
20260901173804 80 120 1.0 7.0 0.00 0.00 0.00 10 1009.3
20260901173705 80 115 2.0 7.0 0.00 0.00 0.00 10 1009.3
20260901173604 79 117 2.0 7.0 0.00 0.00 0.00 10 1009.3
20260901173504 79 111 2.0 7.0 0.00 0.00 0.00 10 1009.4
20260901173404 79 111 2.0 7.0 0.00 0.00 0.00 10 1009.4
20260901173304 79 119 3.0 7.0 0.00 0.00 0.00 10 1009.5
20260901173205 79 128 2.0 9.0 0.00 0.00 0.00 10 1009.4
20260901173104 79 146 4.0 13.0 0.00 0.00 0.00 10 1009.5
20260901173004 79 161 4.0 13.0 0.00 0.00 0.00 10 1009.5
20260901172905 79 161 2.0 13.0 0.00 0.00 0.00 10 1009.3
20260901172805 78 162 4.0 13.0 0.00 0.00 0.00 10 1009.4
20260901172704 78 183 4.0 13.0 0.00 0.00 0.00 10 1009.4
20260901172605 78 200 4.0 13.0 0.00 0.00 0.00 10 1009.4
20260901172504 78 225 3.0 13.0 0.00 0.00 0.00 10 1009.5
20260901172405 78 245 3.0 13.0 0.00 0.00 0.00 10 1009.5
20260901171904 78 269 3.0 15.0 0.00 0.00 0.00 10 1009.4
20260901171804 78 262 4.0 15.0 0.00 0.00 0.00 10 1009.4
20260901171704 78 256 6.0 15.0 0.00 0.00 0.00 10 1009.3
20260901171604 78 241 4.0 15.0 0.00 0.00 0.00 10 1009.4
20260901171504 78 213 4.0 15.0 0.00 0.00 0.00 10 1009.3
20260901171405 77 201 2.0 15.0 0.00 0.00 0.00 10 1009.3
20260901171304 77 188 3.0 15.0 0.00 0.00 0.00 10 1009.4
20260901171204 77 197 5.0 15.0 0.00 0.00 0.00 10 1009.5
20260901171104 77 188 11.0 15.0 0.00 0.00 0.00 10 1009.4
20260901171004 78 172 8.0 13.0 0.00 0.00 0.00 10 1009.4
20260901170904 77 160 4.0 11.0 0.00 0.00 0.00 10 1009.4
20260901170304 77 232 4.0 11.0 0.00 0.00 0.00 10 1009.4
20260901170204 77 229 3.0 11.0 0.00 0.00 0.00 10 1009.4
20260901170104 76 196 2.0 11.0 0.00 0.00 0.00 10 1009.5
20260901170004 76 202 2.0 14.0 0.00 0.00 0.00 10 1009.5
20260901165904 76 215 4.0 14.0 0.00 0.00 0.00 10 1009.5
20260901165805 76 220 4.0 14.0 0.00 0.00 0.00 10 1009.5
20260901165704 76 227 5.0 14.0 0.00 0.00 0.00 10 1009.4
20260901165605 76 237 7.0 14.0 0.00 0.00 0.00 10 1009.4
20260901165504 76 250 4.0 14.0 0.00 0.00 0.00 10 1009.4
20260901165405 76 250 2.0 14.0 0.00 0.00 0.00 10 1009.5
20260901165306 76 253 2.0 14.0 0.00 0.00 0.00 10 1009.4
20260901165205 76 243 3.0 14.0 0.00 0.00 0.00 10 1009.6
20260901165104 76 249 4.0 14.0 0.00 0.00 0.00 10 1009.6
20260901165004 76 251 10.0 14.0 0.00 0.00 0.00 10 1009.6
20260901164904 76 231 9.0 13.0 0.00 0.00 0.00 10 1009.5
20260901164804 76 241 7.0 16.0 0.00 0.00 0.00 10 1009.5
20260901164604 76 238 1.0 16.0 0.00 0.00 0.00 10 1009.7
20260901164504 76 241 1.0 19.0 0.00 0.00 0.00 10 1009.6
20260901164404 75 231 2.0 19.0 0.00 0.00 0.00 10 1009.7
20260901164305 75 222 3.0 19.0 0.00 0.00 0.00 10 1009.7
20260901163704 75 223 9.0 19.0 0.00 0.00 0.00 10 1009.5
20260901163104 75 239 7.0 15.0 0.00 0.00 0.00 10 1009.6
20260901163004 75 242 7.0 15.0 0.00 0.00 0.00 10 1009.6
20260901162905 75 255 6.0 15.0 0.00 0.00 0.00 10 1009.6
20260901162804 75 255 5.0 15.0 0.00 0.00 0.00 10 1009.5
20260901162704 75 251 3.0 15.0 0.00 0.00 0.00 10 1009.5
20260901162604 75 246 5.0 15.0 0.00 0.00 0.00 10 1009.6
20260901162504 75 236 7.0 15.0 0.00 0.00 0.00 10 1009.6
20260901162404 75 216 8.0 15.0 0.00 0.00 0.00 10 1009.5
20260901162306 75 209 3.0 11.0 0.00 0.00 0.00 10 1009.5
20260901162204 75 202 2.0 11.0 0.00 0.00 0.00 10 1009.6
20260901162105 75 197 3.0 11.0 0.00 0.00 0.00 10 1009.6
20260901162004 74 203 4.0 11.0 0.00 0.00 0.00 10 1009.5
20260901161904 74 193 4.0 11.0 0.00 0.00 0.00 10 1009.5
20260901161805 74 199 4.0 11.0 0.00 0.00 0.00 10 1009.6
20260901161704 74 206 3.0 11.0 0.00 0.00 0.00 10 1009.5
20260901161605 75 208 4.0 11.0 0.00 0.00 0.00 10 1009.5
20260901161504 75 214 4.0 11.0 0.00 0.00 0.00 10 1009.5
20260901161404 75 220 4.0 10.0 0.00 0.00 0.00 10 1009.5
20260901161304 75 208 2.0 8.0 0.00 0.00 0.00 10 1009.6
20260901161204 74 221 2.0 8.0 0.00 0.00 0.00 10 1009.7
20260901161105 74 223 4.0 8.0 0.00 0.00 0.00 10 1009.7
20260901161004 74 230 4.0 8.0 0.00 0.00 0.00 11 1009.6
20260901160805 74 232 2.0 14.0 0.00 0.00 0.00 12 1009.6
20260901160704 74 239 3.0 14.0 0.00 0.00 0.00 12 1009.4
20260901160605 74 247 2.0 14.0 0.00 0.00 0.00 11 1009.5
20260901160504 74 255 2.0 14.0 0.00 0.00 0.00 11 1009.5
20260901160304 74 257 3.0 14.0 0.00 0.00 0.00 10 1009.6
20260901160205 74 251 5.0 14.0 0.00 0.00 0.00 10 1009.5
20260901160104 74 244 3.0 14.0 0.00 0.00 0.00 10 1009.6
20260901160005 74 233 3.0 14.0 0.00 0.00 0.00 10 1009.5
20260901155904 74 231 4.0 14.0 0.00 0.00 0.00 11 1009.5
20260901155306 73 186 3.0 11.0 0.00 0.00 0.00 13 1009.6
20260901155205 73 181 2.0 11.0 0.00 0.00 0.00 14 1009.4
20260901155104 73 181 3.0 11.0 0.00 0.00 0.00 13 1009.5
20260901155005 73 183 4.0 11.0 0.00 0.00 0.00 13 1009.5
20260901154904 73 169 6.0 11.0 0.00 0.00 0.00 13 1009.5
20260901154804 73 158 4.0 8.0 0.00 0.00 0.00 14 1009.5
20260901154705 73 154 4.0 8.0 0.00 0.00 0.00 15 1009.6
20260901154604 73 147 4.0 8.0 0.00 0.00 0.00 15 1009.6
20260901154505 73 141 4.0 8.0 0.00 0.00 0.00 15 1009.6
20260901154404 73 129 4.0 7.0 0.00 0.00 0.00 16 1009.7
20260901154305 73 125 4.0 7.0 0.00 0.00 0.00 17 1009.8
20260901154204 73 131 4.0 7.0 0.00 0.00 0.00 17 1009.7
20260901154104 73 118 1.0 5.0 0.00 0.00 0.00 17 1009.5
20260901154004 73 116 2.0 5.0 0.00 0.00 0.00 17 1009.6
20260901153904 72 124 3.0 5.0 0.00 0.00 0.00 17 1009.4
20260901153804 72 140 2.0 4.0 0.00 0.00 0.00 18 1009.5
20260901153004 70 0 0.0 3.0 0.00 0.00 0.00 20 1009.5
20260901152904 70 0 0.0 3.0 0.00 0.00 0.00 20 1009.4
20260901152804 70 0 0.0 3.0 0.00 0.00 0.00 21 1009.5
20260901152704 69 133 2.0 3.0 0.00 0.00 0.00 22 1009.6
20260901152604 69 0 0.0 3.0 0.00 0.00 0.00 22 1009.5
20260901152104 68 0 0.0 4.0 0.00 0.00 0.00 23 1009.7
20260901152004 68 108 1.0 4.0 0.00 0.00 0.00 23 1009.7
20260901151905 67 111 1.0 4.0 0.00 0.00 0.00 23 1009.6
20260901151804 67 105 1.0 4.0 0.00 0.00 0.00 24 1009.8
20260901151704 67 0 0.0 4.0 0.00 0.00 0.00 24 1009.7
20260901151604 67 106 1.0 4.0 0.00 0.00 0.00 25 1009.6
20260901151504 67 112 1.0 4.0 0.00 0.00 0.00 25 1009.7
20260901151404 66 123 1.0 4.0 0.00 0.00 0.00 26 1009.7
20260901151304 66 132 2.0 4.0 0.00 0.00 0.00 26 1009.7
20260901151204 66 143 2.0 4.0 0.00 0.00 0.00 26 1009.7
20260901151104 65 0 0.0 4.0 0.00 0.00 0.00 26 1009.8
20260901151005 65 170 1.0 4.0 0.00 0.00 0.00 24 1009.8
20260901150904 65 194 1.0 4.0 0.00 0.00 0.00 24 1009.7
20260901150805 65 216 2.0 4.0 0.00 0.00 0.00 24 1009.7
20260901150704 64 228 2.0 4.0 0.00 0.00 0.00 24 1009.8
20260901150604 64 0 0.0 4.0 0.00 0.00 0.00 24 1009.7
20260901150505 64 247 1.0 4.0 0.00 0.00 0.00 23 1009.8
20260901150404 64 257 2.0 4.0 0.00 0.00 0.00 24 1009.7
20260901150305 64 262 1.0 4.0 0.00 0.00 0.00 24 1009.7
20260901150204 64 265 1.0 4.0 0.00 0.00 0.00 24 1009.7
20260901150104 63 269 3.0 4.0 0.00 0.00 0.00 25 1009.7
20260901150004 63 270 3.0 4.0 0.00 0.00 0.00 25 1009.7
20260901145904 63 271 2.0 5.0 0.00 0.00 0.00 25 1009.6
20260901145805 63 271 2.0 5.0 0.00 0.00 0.00 26 1009.6
20260901145704 63 270 1.0 5.0 0.00 0.00 0.00 27 1009.5
20260901145605 62 267 1.0 5.0 0.00 0.00 0.00 27 1009.5
20260901145504 62 258 2.0 5.0 0.00 0.00 0.00 27 1009.6
20260901145405 62 252 2.0 5.0 0.00 0.00 0.00 28 1009.7
20260901144704 62 225 3.0 5.0 0.00 0.00 0.00 29 1009.6
20260901144604 62 220 2.0 5.0 0.00 0.00 0.00 28 1009.6
20260901144504 62 227 2.0 5.0 0.00 0.00 0.00 28 1009.6
20260901144404 62 226 2.0 5.0 0.00 0.00 0.00 28 1009.6
20260901144304 63 224 3.0 5.0 0.00 0.00 0.00 28 1009.6
20260901144205 63 223 3.0 5.0 0.00 0.00 0.00 28 1009.7
20260901144104 63 223 4.0 4.0 0.00 0.00 0.00 27 1009.7
20260901144004 63 222 2.0 4.0 0.00 0.00 0.00 27 1009.7
20260901143904 62 218 2.0 4.0 0.00 0.00 0.00 28 1009.7
20260901143804 62 208 2.0 4.0 0.00 0.00 0.00 28 1009.7
20260901143704 62 0 0.0 2.0 0.00 0.00 0.00 29 1009.7
20260901143605 62 234 1.0 4.0 0.00 0.00 0.00 29 1009.6
20260901143504 62 235 1.0 4.0 0.00 0.00 0.00 30 1009.7
20260901143404 61 0 0.0 4.0 0.00 0.00 0.00 30 1009.7
20260901143304 61 0 0.0 4.0 0.00 0.00 0.00 30 1009.7
20260901143204 61 0 0.0 4.0 0.00 0.00 0.00 30 1009.7
20260901143104 61 0 0.0 4.0 0.00 0.00 0.00 30 1009.6
20260901143004 61 0 0.0 4.0 0.00 0.00 0.00 30 1009.7
20260901142904 61 0 0.0 4.0 0.00 0.00 0.00 29 1009.6
20260901142804 61 0 0.0 4.0 0.00 0.00 0.00 29 1009.6
20260901142704 61 237 2.0 4.0 0.00 0.00 0.00 29 1009.6
20260901142604 61 231 3.0 4.0 0.00 0.00 0.00 29 1009.6
20260901142504 61 224 2.0 4.0 0.00 0.00 0.00 30 1009.6
20260901142404 61 218 3.0 4.0 0.00 0.00 0.00 29 1009.5
20260901142306 61 192 2.0 4.0 0.00 0.00 0.00 30 1009.6
20260901142204 60 143 2.0 4.0 0.00 0.00 0.00 31 1009.4
20260901142104 60 112 2.0 4.0 0.00 0.00 0.00 31 1009.4
20260901142004 60 104 2.0 4.0 0.00 0.00 0.00 31 1009.4
20260901141404 59 93 2.0 5.0 0.00 0.00 0.00 33 1009.3
20260901141304 59 95 2.0 5.0 0.00 0.00 0.00 33 1009.4
20260901141204 58 97 2.0 5.0 0.00 0.00 0.00 33 1009.3
20260901141104 58 97 2.0 5.0 0.00 0.00 0.00 32 1009.4
20260901141004 58 93 2.0 5.0 0.00 0.00 0.00 32 1009.3
20260901140904 58 93 2.0 5.0 0.00 0.00 0.00 32 1009.3
20260901140804 57 94 2.0 5.0 0.00 0.00 0.00 32 1009.2
20260901140704 57 94 4.0 5.0 0.00 0.00 0.00 31 1009.3
20260901140605 57 98 3.0 5.0 0.00 0.00 0.00 31 1009.3
20260901140504 57 99 3.0 4.0 0.00 0.00 0.00 32 1009.2
20260901140404 57 99 2.0 4.0 0.00 0.00 0.00 33 1009.2
20260901140304 56 96 1.0 4.0 0.00 0.00 0.00 32 1009.3
20260901140204 56 94 1.0 4.0 0.00 0.00 0.00 32 1009.3
20260901140104 56 94 2.0 4.0 0.00 0.00 0.00 31 1009.3
20260901140004 56 94 2.0 4.0 0.00 0.00 0.00 31 1009.2
20260901135904 56 94 2.0 4.0 0.00 0.00 0.00 30 1009.3
20260901135804 56 94 2.0 4.0 0.00 0.00 0.00 30 1009.2
20260901135704 56 94 2.0 4.0 0.00 0.00 0.00 30 1009.3
20260901135604 55 90 3.0 4.0 0.00 0.00 0.00 30 1009.2
20260901135504 55 90 4.0 4.0 0.00 0.00 0.00 30 1009.3
20260901135404 55 90 3.0 4.0 0.00 0.00 0.00 30 1009.2
20260901135305 55 90 3.0 4.0 0.00 0.00 0.00 30 1009.3
20260901135204 55 90 3.0 4.0 0.00 0.00 0.00 30 1009.2
20260901135104 55 90 2.0 4.0 0.00 0.00 0.00 30 1009.2
20260901135004 55 90 2.0 4.0 0.00 0.00 0.00 30 1009.3
20260901134903 55 90 2.0 4.0 0.00 0.00 0.00 30 1009.2
20260901134804 55 90 2.0 4.0 0.00 0.00 0.00 30 1009.3
20260901134704 55 90 2.0 4.0 0.00 0.00 0.00 30 1009.3
20260901134605 55 95 2.0 4.0 0.00 0.00 0.00 30 1009.3
20260901134504 55 96 2.0 4.0 0.00 0.00 0.00 30 1009.2
20260901134404 55 96 2.0 5.0 0.00 0.00 0.00 30 1009.1
20260901134304 55 96 3.0 5.0 0.00 0.00 0.00 30 1009.1
20260901134204 55 95 3.0 5.0 0.00 0.00 0.00 30 1009.1
20260901134104 55 95 2.0 5.0 0.00 0.00 0.00 30 1009.0
20260901134005 55 99 2.0 8.0 0.00 0.00 0.00 30 1009.1
20260901133504 54 93 2.0 8.0 0.00 0.00 0.00 31 1009.3
20260901133005 53 93 4.0 8.0 0.00 0.00 0.00 32 1009.2
20260901132904 53 93 4.0 7.0 0.00 0.00 0.00 33 1009.2
20260901132804 53 93 5.0 7.0 0.00 0.00 0.00 33 1009.2
20260901132704 53 94 2.0 6.0 0.00 0.00 0.00 33 1009.2
20260901132604 53 93 2.0 6.0 0.00 0.00 0.00 33 1009.3
20260901132504 53 93 2.0 6.0 0.00 0.00 0.00 33 1009.2
20260901132404 52 90 2.0 6.0 0.00 0.00 0.00 33 1009.3
20260901132307 52 89 5.0 6.0 0.00 0.00 0.00 33 1009.2
20260901132204 52 89 4.0 6.0 0.00 0.00 0.00 33 1009.2
20260901132104 52 89 4.0 6.0 0.00 0.00 0.00 33 1009.2
20260901132004 52 89 4.0 6.0 0.00 0.00 0.00 34 1009.2
20260901131904 52 91 4.0 5.0 0.00 0.00 0.00 34 1009.1
20260901131804 52 97 4.0 5.0 0.00 0.00 0.00 34 1009.1
20260901131704 52 97 4.0 5.0 0.00 0.00 0.00 34 1009.1
20260901131604 52 98 3.0 4.0 0.00 0.00 0.00 33 1009.1
20260901131504 52 99 2.0 4.0 0.00 0.00 0.00 33 1009.2
20260901131404 52 100 1.0 4.0 0.00 0.00 0.00 34 1009.1
20260901131304 52 103 2.0 4.0 0.00 0.00 0.00 34 1009.1
20260901131204 52 105 2.0 4.0 0.00 0.00 0.00 34 1009.1
20260901131104 52 109 3.0 4.0 0.00 0.00 0.00 34 1009.2
20260901131004 52 113 2.0 4.0 0.00 0.00 0.00 34 1009.3
20260901130904 52 109 2.0 4.0 0.00 0.00 0.00 35 1009.2
20260901130804 52 94 3.0 4.0 0.00 0.00 0.00 35 1009.2
20260901130704 52 90 2.0 3.0 0.00 0.00 0.00 35 1009.0
20260901130604 52 108 2.0 3.0 0.00 0.00 0.00 35 1009.1
20260901130504 53 0 0.0 2.0 0.00 0.00 0.00 36 1009.0
20260901130404 53 0 0.0 2.0 0.00 0.00 0.00 36 1009.0
20260901130304 53 0 0.0 2.0 0.00 0.00 0.00 36 1009.1
20260901130204 53 0 0.0 2.0 0.00 0.00 0.00 36 1008.9
20260901130104 53 0 0.0 2.0 0.00 0.00 0.00 36 1009.1
20260901130004 53 0 0.0 2.0 0.00 0.00 0.00 36 1008.9
20260901125903 53 0 0.0 2.0 0.00 0.00 0.00 36 1009.0
20260901125804 53 0 0.0 3.0 0.00 0.00 0.00 36 1009.1
20260901125704 53 0 0.0 3.0 0.00 0.00 0.00 36 1009.1
20260901125605 53 0 0.0 3.0 0.00 0.00 0.00 36 1009.1
20260901125504 53 0 0.0 3.0 0.00 0.00 0.00 36 1009.0
20260901125405 53 135 1.0 3.0 0.00 0.00 0.00 35 1009.0
20260901125308 53 0 0.0 3.0 0.00 0.00 0.00 35 1009.0
20260901125204 54 120 1.0 3.0 0.00 0.00 0.00 35 1009.0
20260901125104 54 128 1.0 3.0 0.00 0.00 0.00 35 1008.9
20260901125004 54 0 0.0 3.0 0.00 0.00 0.00 35 1008.8
20260901124904 54 154 1.0 3.0 0.00 0.00 0.00 35 1008.9
20260901124804 54 161 1.0 3.0 0.00 0.00 0.00 35 1009.0
20260901124304 54 0 0.0 4.0 0.00 0.00 0.00 33 1008.9
20260901124205 54 0 0.0 4.0 0.00 0.00 0.00 34 1008.9
20260901124104 54 0 0.0 4.0 0.00 0.00 0.00 34 1009.0
20260901124004 55 0 0.0 4.0 0.00 0.00 0.00 34 1009.0
20260901123904 55 0 0.0 4.0 0.00 0.00 0.00 34 1009.0
20260901123804 55 0 0.0 4.0 0.00 0.00 0.00 33 1008.9
20260901123104 56 0 0.0 2.0 0.00 0.00 0.00 28 1008.9
20260901123005 56 0 0.0 2.0 0.00 0.00 0.00 28 1008.8
20260901122904 57 0 0.0 2.0 0.00 0.00 0.00 28 1008.9
20260901122804 57 0 0.0 4.0 0.00 0.00 0.00 28 1008.8
20260901122704 57 0 0.0 4.0 0.00 0.00 0.00 28 1008.8
20260901122604 57 154 1.0 4.0 0.00 0.00 0.00 27 1008.9
20260901122504 57 0 0.0 4.0 0.00 0.00 0.00 27 1008.8
20260901122404 57 0 0.0 4.0 0.00 0.00 0.00 28 1008.8
20260901122306 58 0 0.0 4.0 0.00 0.00 0.00 28 1008.8
20260901122204 58 0 0.0 4.0 0.00 0.00 0.00 28 1008.7
20260901122103 58 0 0.0 4.0 0.00 0.00 0.00 28 1008.8
20260901122004 58 0 0.0 4.0 0.00 0.00 0.00 28 1008.8
20260901121904 57 0 0.0 4.0 0.00 0.00 0.00 29 1008.8
20260901121804 57 99 2.0 4.0 0.00 0.00 0.00 28 1008.8
20260901121704 57 96 2.0 4.0 0.00 0.00 0.00 29 1008.7
20260901121604 57 99 2.0 4.0 0.00 0.00 0.00 29 1008.7
20260901121504 57 98 1.0 4.0 0.00 0.00 0.00 30 1008.7
20260901121104 56 90 3.0 4.0 0.00 0.00 0.00 30 1008.7
20260901121005 56 90 3.0 4.0 0.00 0.00 0.00 31 1008.6
20260901120904 56 90 3.0 4.0 0.00 0.00 0.00 31 1008.6
20260901120804 56 90 3.0 4.0 0.00 0.00 0.00 31 1008.6
20260901120704 58 90 3.0 4.0 0.00 0.00 0.00 29 1008.7
20260901120604 58 90 3.0 4.0 0.00 0.00 0.00 29 1008.6
20260901120504 58 87 3.0 4.0 0.00 0.00 0.00 29 1008.5
20260901120404 58 83 3.0 4.0 0.00 0.00 0.00 29 1008.5
20260901120304 58 81 3.0 4.0 0.00 0.00 0.00 29 1008.5
20260901120204 58 79 3.0 4.0 0.00 0.00 0.00 29 1008.5
20260901120104 58 79 3.0 4.0 0.00 0.00 0.00 29 1008.5
20260901120004 58 79 3.0 4.0 0.00 0.00 0.00 29 1008.5
20260901115404 58 0 0.0 4.0 0.00 0.00 0.00 29 1008.5
20260901115306 58 0 0.0 4.0 0.00 0.00 0.00 29 1008.5
20260901115204 58 0 0.0 4.0 0.00 0.00 0.00 28 1008.5
20260901115103 58 0 0.0 4.0 0.00 0.00 0.00 28 1008.6
20260901115004 58 229 1.0 4.0 0.00 0.00 0.00 28 1008.6
20260901114904 58 227 2.0 4.0 0.00 0.00 0.00 28 1008.6
20260901114804 58 221 2.0 4.0 0.00 0.00 0.00 28 1008.6
20260901114704 58 211 2.0 4.0 0.00 0.00 0.00 27 1008.7
20260901114605 58 187 2.0 6.0 0.00 0.00 0.00 27 1008.5
20260901114504 58 150 1.0 6.0 0.00 0.00 0.00 26 1008.5
20260901114404 58 116 2.0 6.0 0.00 0.00 0.00 26 1008.5
20260901114204 59 88 2.0 6.0 0.00 0.00 0.00 25 1008.5
20260901114103 59 85 3.0 6.0 0.00 0.00 0.00 25 1008.5
20260901114004 59 86 1.0 6.0 0.00 0.00 0.00 25 1008.5
20260901113904 60 85 2.0 6.0 0.00 0.00 0.00 24 1008.4
20260901113804 60 85 3.0 6.0 0.00 0.00 0.00 24 1008.4
20260901113704 60 87 3.0 6.0 0.00 0.00 0.00 24 1008.4
20260901113604 60 93 4.0 6.0 0.00 0.00 0.00 24 1008.4
20260901113505 60 94 3.0 4.0 0.00 0.00 0.00 24 1008.4
20260901113404 60 94 3.0 4.0 0.00 0.00 0.00 24 1008.3
20260901113304 60 98 3.0 4.0 0.00 0.00 0.00 23 1008.3
20260901113204 60 99 2.0 4.0 0.00 0.00 0.00 23 1008.4
20260901113104 61 99 2.0 4.0 0.00 0.00 0.00 23 1008.4
20260901113004 61 98 2.0 4.0 0.00 0.00 0.00 23 1008.4
20260901112904 61 97 2.0 5.0 0.00 0.00 0.00 23 1008.3
20260901112804 61 97 2.0 5.0 0.00 0.00 0.00 23 1008.4
20260901112705 61 94 1.0 5.0 0.00 0.00 0.00 23 1008.4
20260901112604 62 92 2.0 5.0 0.00 0.00 0.00 23 1008.4
20260901112504 62 92 2.0 5.0 0.00 0.00 0.00 22 1008.4
20260901112404 62 92 2.0 5.0 0.00 0.00 0.00 22 1008.4
20260901112306 62 90 2.0 5.0 0.00 0.00 0.00 22 1008.4
20260901112204 62 90 2.0 5.0 0.00 0.00 0.00 22 1008.4
20260901112104 62 90 4.0 5.0 0.00 0.00 0.00 22 1008.4
20260901112004 62 90 4.0 6.0 0.00 0.00 0.00 22 1008.4
20260901111904 62 86 4.0 6.0 0.00 0.00 0.00 22 1008.4
20260901111804 62 87 4.0 6.0 0.00 0.00 0.00 22 1008.4
20260901111704 62 87 4.0 6.0 0.00 0.00 0.00 22 1008.4
20260901111604 62 87 2.0 8.0 0.00 0.00 0.00 22 1008.3
20260901111504 62 87 2.0 8.0 0.00 0.00 0.00 22 1008.4
20260901111405 62 87 2.0 8.0 0.00 0.00 0.00 22 1008.3
20260901110804 62 90 4.0 8.0 0.00 0.00 0.00 23 1008.3
20260901110703 62 87 4.0 8.0 0.00 0.00 0.00 24 1008.4
20260901110604 62 87 4.0 8.0 0.00 0.00 0.00 24 1008.3
20260901110504 62 87 4.0 8.0 0.00 0.00 0.00 24 1008.3
20260901110404 62 87 4.0 8.0 0.00 0.00 0.00 24 1008.4
20260901110304 62 87 4.0 8.0 0.00 0.00 0.00 24 1008.4
20260901110204 62 86 4.0 8.0 0.00 0.00 0.00 24 1008.4
20260901110104 62 86 4.0 8.0 0.00 0.00 0.00 24 1008.3
20260901110004 62 86 4.0 8.0 0.00 0.00 0.00 24 1008.3
20260901105905 61 87 4.0 8.0 0.00 0.00 0.00 25 1008.3
20260901105704 61 91 5.0 8.0 0.00 0.00 0.00 25 1008.3
20260901105604 61 92 5.0 8.0 0.00 0.00 0.00 25 1008.3
20260901105504 61 92 4.0 6.0 0.00 0.00 0.00 26 1008.3
20260901105405 61 92 4.0 6.0 0.00 0.00 0.00 26 1008.3
20260901105305 61 92 2.0 5.0 0.00 0.00 0.00 27 1008.4
20260901105204 61 92 2.0 5.0 0.00 0.00 0.00 27 1008.3
20260901105104 61 92 2.0 5.0 0.00 0.00 0.00 27 1008.3
20260901105004 61 91 2.0 5.0 0.00 0.00 0.00 27 1008.3
20260901104904 61 90 2.0 5.0 0.00 0.00 0.00 27 1008.3
20260901104804 61 90 3.0 5.0 0.00 0.00 0.00 27 1008.4
20260901104604 61 90 4.0 5.0 0.00 0.00 0.00 27 1008.2
20260901104504 61 92 4.0 5.0 0.00 0.00 0.00 27 1008.4
20260901104404 61 95 4.0 5.0 0.00 0.00 0.00 27 1008.3
20260901104304 60 96 4.0 5.0 0.00 0.00 0.00 28 1008.4
20260901104204 60 97 4.0 5.0 0.00 0.00 0.00 28 1008.3
20260901104104 60 98 4.0 5.0 0.00 0.00 0.00 28 1008.2
20260901104004 60 99 4.0 5.0 0.00 0.00 0.00 28 1008.2
20260901103904 60 102 4.0 5.0 0.00 0.00 0.00 28 1008.2
20260901103804 60 101 4.0 5.0 0.00 0.00 0.00 28 1008.3
20260901103704 60 98 2.0 5.0 0.00 0.00 0.00 29 1008.3
20260901103604 60 96 2.0 3.0 0.00 0.00 0.00 29 1008.4
20260901103504 60 87 2.0 4.0 0.00 0.00 0.00 29 1008.4
20260901103405 60 81 2.0 4.0 0.00 0.00 0.00 29 1008.4
20260901103304 60 81 1.0 4.0 0.00 0.00 0.00 29 1008.4
20260901103204 60 0 0.0 4.0 0.00 0.00 0.00 29 1008.4
20260901103104 60 0 0.0 4.0 0.00 0.00 0.00 29 1008.3
20260901103004 60 0 0.0 5.0 0.00 0.00 0.00 29 1008.4
20260901102904 60 0 0.0 5.0 0.00 0.00 0.00 29 1008.4
20260901102804 60 0 0.0 5.0 0.00 0.00 0.00 29 1008.4
20260901102704 60 89 1.0 5.0 0.00 0.00 0.00 29 1008.3
20260901102604 60 90 2.0 5.0 0.00 0.00 0.00 29 1008.4
20260901102504 60 90 3.0 5.0 0.00 0.00 0.00 29 1008.3
20260901102404 60 90 3.0 5.0 0.00 0.00 0.00 30 1008.3
20260901102306 60 90 4.0 5.0 0.00 0.00 0.00 30 1008.3
20260901102204 60 90 3.0 5.0 0.00 0.00 0.00 30 1008.3
20260901102104 60 90 3.0 5.0 0.00 0.00 0.00 31 1008.2
20260901102004 60 90 4.0 5.0 0.00 0.00 0.00 31 1008.2
20260901101904 60 90 3.0 4.0 0.00 0.00 0.00 32 1008.1
20260901101804 60 90 4.0 4.0 0.00 0.00 0.00 32 1008.1
20260901101704 60 90 4.0 4.0 0.00 0.00 0.00 32 1008.2
20260901101604 60 94 4.0 4.0 0.00 0.00 0.00 32 1008.2
20260901101504 60 98 3.0 4.0 0.00 0.00 0.00 32 1008.2
20260901101404 60 103 3.0 4.0 0.00 0.00 0.00 33 1008.1
20260901101304 60 109 3.0 4.0 0.00 0.00 0.00 33 1008.2
20260901101204 59 114 3.0 4.0 0.00 0.00 0.00 33 1008.1
20260901101104 59 119 2.0 4.0 0.00 0.00 0.00 33 1008.2
20260901101003 59 123 3.0 4.0 0.00 0.00 0.00 33 1008.4
20260901100904 59 123 2.0 4.0 0.00 0.00 0.00 33 1008.4
20260901100804 59 123 2.0 4.0 0.00 0.00 0.00 33 1008.3
20260901100704 60 122 3.0 4.0 0.00 0.00 0.00 33 1008.3
20260901100604 60 116 3.0 4.0 0.00 0.00 0.00 33 1008.4
20260901100503 60 112 3.0 4.0 0.00 0.00 0.00 33 1008.3
20260901100404 60 108 3.0 4.0 0.00 0.00 0.00 33 1008.4
20260901100304 60 103 3.0 4.0 0.00 0.00 0.00 33 1008.3
20260901100204 60 98 3.0 4.0 0.00 0.00 0.00 33 1008.4
20260901100104 60 93 3.0 4.0 0.00 0.00 0.00 33 1008.3
20260901100004 60 88 3.0 4.0 0.00 0.00 0.00 33 1008.4
20260901095904 60 86 3.0 4.0 0.00 0.00 0.00 33 1008.3
20260901095804 60 84 2.0 4.0 0.00 0.00 0.00 33 1008.3
20260901095705 60 85 2.0 3.0 0.00 0.00 0.00 33 1008.3
20260901095604 60 97 2.0 3.0 0.00 0.00 0.00 33 1008.2
20260901095504 60 105 1.0 2.0 0.00 0.00 0.00 33 1008.3
20260901095404 60 104 1.0 2.0 0.00 0.00 0.00 33 1008.3
20260901095306 60 103 1.0 2.0 0.00 0.00 0.00 33 1008.3
20260901095204 60 104 1.0 2.0 0.00 0.00 0.00 33 1008.2
20260901095103 60 0 0.0 2.0 0.00 0.00 0.00 34 1008.4
20260901095003 60 0 0.0 3.0 0.00 0.00 0.00 34 1008.3
20260901094904 60 0 0.0 6.0 0.00 0.00 0.00 34 1008.3
20260901094804 60 0 0.0 6.0 0.00 0.00 0.00 33 1008.3
20260901094704 60 0 0.0 6.0 0.00 0.00 0.00 34 1008.3
20260901094605 60 87 2.0 6.0 0.00 0.00 0.00 33 1008.3
20260901094504 60 0 0.0 6.0 0.00 0.00 0.00 33 1008.2
20260901094404 60 0 0.0 6.0 0.00 0.00 0.00 34 1008.2
20260901094303 60 0 0.0 6.0 0.00 0.00 0.00 34 1008.2
20260901094204 60 0 0.0 6.0 0.00 0.00 0.00 34 1008.2
20260901094104 60 0 0.0 6.0 0.00 0.00 0.00 34 1008.2
20260901094003 60 95 1.0 6.0 0.00 0.00 0.00 34 1008.2
20260901093904 60 97 4.0 6.0 0.00 0.00 0.00 34 1008.1
20260901093804 60 97 4.0 6.0 0.00 0.00 0.00 34 1008.2
20260901093703 60 97 4.0 5.0 0.00 0.00 0.00 34 1008.2
20260901093604 60 93 4.0 4.0 0.00 0.00 0.00 34 1008.2
20260901092904 60 63 1.0 3.0 0.00 0.00 0.00 34 1008.2
20260901092804 60 73 2.0 4.0 0.00 0.00 0.00 34 1008.2
20260901092704 61 74 2.0 4.0 0.00 0.00 0.00 34 1008.3
20260901092604 61 81 2.0 4.0 0.00 0.00 0.00 34 1008.2
20260901092504 61 86 2.0 4.0 0.00 0.00 0.00 33 1008.2
20260901092404 61 80 2.0 4.0 0.00 0.00 0.00 33 1008.2
20260901092305 61 78 1.0 4.0 0.00 0.00 0.00 33 1008.2
20260901092203 61 82 1.0 4.0 0.00 0.00 0.00 34 1008.3
20260901092104 61 0 0.0 4.0 0.00 0.00 0.00 34 1008.2
20260901092004 61 0 0.0 4.0 0.00 0.00 0.00 34 1008.2
20260901091904 61 89 1.0 4.0 0.00 0.00 0.00 34 1008.2
20260901091804 61 84 2.0 4.0 0.00 0.00 0.00 34 1008.2
20260901091603 61 102 2.0 3.0 0.00 0.00 0.00 34 1008.1
20260901091504 61 123 2.0 3.0 0.00 0.00 0.00 34 1008.1
20260901091404 61 0 0.0 2.0 0.00 0.00 0.00 34 1008.2
20260901091304 61 143 1.0 2.0 0.00 0.00 0.00 34 1008.2
20260901091204 61 134 2.0 2.0 0.00 0.00 0.00 34 1008.2
20260901091104 61 0 0.0 2.0 0.00 0.00 0.00 33 1008.2
20260901090404 62 107 1.0 4.0 0.00 0.00 0.00 33 1008.1
20260901090304 62 102 1.0 4.0 0.00 0.00 0.00 33 1008.2
20260901090204 62 97 1.0 4.0 0.00 0.00 0.00 33 1008.1
20260901090104 62 94 1.0 4.0 0.00 0.00 0.00 33 1008.1
20260901090004 62 90 1.0 4.0 0.00 0.00 0.00 33 1008.1
20260901085904 62 89 2.0 4.0 0.00 0.00 0.00 33 1008.2
20260901085804 62 84 2.0 4.0 0.00 0.00 0.00 33 1008.1
20260901085704 62 83 2.0 4.0 0.00 0.00 0.00 33 1008.0
20260901085604 62 82 3.0 4.0 0.00 0.00 0.00 34 1007.9
20260901085504 62 82 2.0 4.0 0.00 0.00 0.00 34 1007.9
20260901085404 62 81 2.0 4.0 0.00 0.00 0.00 34 1008.1
20260901084905 62 94 1.0 4.0 0.00 0.00 0.00 33 1008.3
20260901084804 62 100 2.0 4.0 0.00 0.00 0.00 33 1008.2
20260901084704 62 97 1.0 4.0 0.00 0.00 0.00 33 1008.3
20260901084604 62 0 0.0 5.0 0.00 0.00 0.00 33 1008.2
20260901084504 62 0 0.0 6.0 0.00 0.00 0.00 33 1008.3
20260901084403 62 0 0.0 6.0 0.00 0.00 0.00 33 1008.2
20260901084304 62 0 0.0 6.0 0.00 0.00 0.00 33 1008.2
20260901084204 62 88 1.0 6.0 0.00 0.00 0.00 33 1008.2
20260901084105 62 83 2.0 6.0 0.00 0.00 0.00 33 1008.3
20260901084004 62 77 3.0 6.0 0.00 0.00 0.00 33 1008.2
20260901083905 63 75 2.0 6.0 0.00 0.00 0.00 33 1008.2
20260901083804 63 78 3.0 6.0 0.00 0.00 0.00 33 1008.2
20260901083104 64 0 0.0 4.0 0.00 0.00 0.00 31 1008.1
20260901083004 64 0 0.0 4.0 0.00 0.00 0.00 31 1008.1
20260901082904 64 76 1.0 4.0 0.00 0.00 0.00 31 1008.1
20260901082804 64 0 0.0 7.0 0.00 0.00 0.00 31 1008.1
20260901082604 64 47 2.0 7.0 0.00 0.00 0.00 31 1008.0
20260901082503 64 44 1.0 7.0 0.00 0.00 0.00 31 1008.0
20260901082404 64 45 2.0 7.0 0.00 0.00 0.00 31 1008.1
20260901082306 64 47 2.0 7.0 0.00 0.00 0.00 30 1008.1
20260901082204 64 50 2.0 7.0 0.00 0.00 0.00 31 1008.1
20260901082104 64 49 2.0 7.0 0.00 0.00 0.00 31 1008.2
20260901082004 64 45 1.0 7.0 0.00 0.00 0.00 31 1008.2
20260901081904 64 40 2.0 7.0 0.00 0.00 0.00 31 1008.0
20260901081804 64 34 4.0 7.0 0.00 0.00 0.00 31 1008.2
20260901081704 64 33 3.0 5.0 0.00 0.00 0.00 31 1008.2
20260901081604 64 39 4.0 5.0 0.00 0.00 0.00 32 1008.0
20260901081503 64 41 2.0 3.0 0.00 0.00 0.00 32 1008.1
20260901081404 64 44 1.0 3.0 0.00 0.00 0.00 32 1008.1
20260901081304 64 43 1.0 3.0 0.00 0.00 0.00 32 1008.2
20260901081204 64 43 1.0 3.0 0.00 0.00 0.00 32 1008.0
20260901081104 64 46 1.0 3.0 0.00 0.00 0.00 33 1008.1
20260901081003 64 52 2.0 3.0 0.00 0.00 0.00 32 1008.1
20260901080904 64 72 2.0 3.0 0.00 0.00 0.00 33 1008.0
20260901080803 64 87 2.0 3.0 0.00 0.00 0.00 33 1008.1
20260901080704 64 0 0.0 2.0 0.00 0.00 0.00 34 1008.1
20260901080604 64 0 0.0 2.0 0.00 0.00 0.00 34 1008.1
20260901080504 64 0 0.0 2.0 0.00 0.00 0.00 34 1008.1
20260901080403 64 0 0.0 2.0 0.00 0.00 0.00 34 1008.0
20260901080304 64 0 0.0 2.0 0.00 0.00 0.00 34 1008.1
20260901080204 64 0 0.0 2.0 0.00 0.00 0.00 34 1008.1
20260901080104 64 0 0.0 2.0 0.00 0.00 0.00 34 1008.1
20260901080004 64 0 0.0 2.0 0.00 0.00 0.00 34 1008.2
20260901075904 63 88 1.0 2.0 0.00 0.00 0.00 34 1008.0
20260901075804 63 92 1.0 2.0 0.00 0.00 0.00 34 1008.0
20260901075704 63 0 0.0 3.0 0.00 0.00 0.00 34 1008.1
20260901075604 63 0 0.0 3.0 0.00 0.00 0.00 34 1008.2
20260901075504 63 0 0.0 3.0 0.00 0.00 0.00 35 1008.0
20260901075404 63 0 0.0 3.0 0.00 0.00 0.00 35 1008.2
20260901075307 63 0 0.0 3.0 0.00 0.00 0.00 35 1008.1
20260901075204 63 101 1.0 3.0 0.00 0.00 0.00 35 1008.1
20260901075103 64 103 1.0 3.0 0.00 0.00 0.00 35 1008.0
20260901075004 64 105 1.0 3.0 0.00 0.00 0.00 35 1008.1
20260901074904 64 0 0.0 3.0 0.00 0.00 0.00 35 1008.0
20260901074804 64 107 1.0 3.0 0.00 0.00 0.00 35 1008.0
20260901074604 64 101 2.0 4.0 0.00 0.00 0.00 35 1008.0
20260901074504 64 100 2.0 4.0 0.00 0.00 0.00 35 1007.9
20260901074404 64 100 2.0 4.0 0.00 0.00 0.00 35 1008.0
20260901074304 64 99 1.0 4.0 0.00 0.00 0.00 35 1008.0
20260901074204 64 98 2.0 4.0 0.00 0.00 0.00 35 1008.1
20260901074104 64 92 2.0 4.0 0.00 0.00 0.00 35 1007.9
20260901074003 64 90 1.0 4.0 0.00 0.00 0.00 35 1008.0
20260901073904 64 83 1.0 4.0 0.00 0.00 0.00 35 1008.0
20260901073804 64 74 1.0 4.0 0.00 0.00 0.00 35 1008.0
20260901073704 64 69 1.0 4.0 0.00 0.00 0.00 35 1008.0
20260901073604 64 64 2.0 4.0 0.00 0.00 0.00 35 1007.9
20260901073504 64 58 3.0 4.0 0.00 0.00 0.00 35 1008.0
20260901073405 64 51 3.0 4.0 0.00 0.00 0.00 36 1008.0
20260901073304 64 46 3.0 4.0 0.00 0.00 0.00 36 1007.9
20260901073205 64 40 2.0 4.0 0.00 0.00 0.00 36 1007.9
20260901073104 64 42 3.0 4.0 0.00 0.00 0.00 36 1008.0
20260901073004 64 41 2.0 4.0 0.00 0.00 0.00 37 1007.9
20260901072904 64 58 2.0 4.0 0.00 0.00 0.00 37 1007.9
20260901072803 64 70 2.0 4.0 0.00 0.00 0.00 37 1007.9
20260901072704 64 81 2.0 4.0 0.00 0.00 0.00 37 1007.9
20260901072604 64 92 2.0 4.0 0.00 0.00 0.00 37 1008.0
20260901072503 64 109 2.0 4.0 0.00 0.00 0.00 37 1008.0
20260901072404 64 130 1.0 2.0 0.00 0.00 0.00 37 1008.0
20260901072308 64 0 0.0 4.0 0.00 0.00 0.00 37 1007.9
20260901072204 64 136 1.0 4.0 0.00 0.00 0.00 37 1008.0
20260901072104 64 145 1.0 4.0 0.00 0.00 0.00 38 1007.9
20260901072004 64 0 0.0 4.0 0.00 0.00 0.00 38 1008.0
20260901071904 64 0 0.0 4.0 0.00 0.00 0.00 38 1008.0
20260901071804 64 145 1.0 4.0 0.00 0.00 0.00 38 1007.9
20260901071704 63 0 0.0 4.0 0.00 0.00 0.00 38 1007.9
20260901071603 63 0 0.0 4.0 0.00 0.00 0.00 38 1007.9
20260901071504 63 0 0.0 4.0 0.00 0.00 0.00 39 1007.9
20260901071404 63 0 0.0 4.0 0.00 0.00 0.00 39 1008.0
20260901071303 63 158 2.0 4.0 0.00 0.00 0.00 39 1007.9
20260901071204 63 165 2.0 4.0 0.00 0.00 0.00 39 1008.0
20260901071104 63 166 1.0 2.0 0.00 0.00 0.00 39 1007.9
20260901070603 64 0 0.0 2.0 0.00 0.00 0.00 38 1007.9
20260901070503 64 0 0.0 2.0 0.00 0.00 0.00 38 1007.9
20260901070404 64 0 0.0 2.0 0.00 0.00 0.00 38 1007.8
20260901070304 64 0 0.0 2.0 0.00 0.00 0.00 38 1007.9
20260901070204 64 0 0.0 2.0 0.00 0.00 0.00 38 1007.9
20260901070103 64 0 0.0 2.0 0.00 0.00 0.00 38 1008.0
20260901070007 64 0 0.0 2.0 0.00 0.00 0.00 38 1007.9
20260901065904 64 185 1.0 2.0 0.00 0.00 0.00 37 1008.0
20260901065804 64 170 2.0 2.0 0.00 0.00 0.00 37 1007.9
20260901065703 64 160 1.0 2.0 0.00 0.00 0.00 36 1007.9
20260901065604 64 0 0.0 2.0 0.00 0.00 0.00 35 1008.0
20260901065504 64 0 0.0 2.0 0.00 0.00 0.00 35 1007.9
20260901065403 64 0 0.0 2.0 0.00 0.00 0.00 34 1007.9
20260901065305 64 0 0.0 2.0 0.00 0.00 0.00 34 1007.9
20260901065204 64 0 0.0 2.0 0.00 0.00 0.00 34 1007.9
20260901065104 65 0 0.0 2.0 0.00 0.00 0.00 33 1007.9
20260901065003 65 0 0.0 2.0 0.00 0.00 0.00 33 1007.9
20260901064904 65 0 0.0 2.0 0.00 0.00 0.00 33 1007.9
20260901064403 65 0 0.0 2.0 0.00 0.00 0.00 32 1007.9
20260901064304 66 0 0.0 2.0 0.00 0.00 0.00 32 1007.8
20260901064204 66 0 0.0 3.0 0.00 0.00 0.00 32 1007.9
20260901064104 66 0 0.0 4.0 0.00 0.00 0.00 31 1007.9
20260901064004 66 0 0.0 7.0 0.00 0.00 0.00 31 1008.0
20260901063903 66 237 1.0 7.0 0.00 0.00 0.00 31 1007.7
20260901063804 66 247 1.0 7.0 0.00 0.00 0.00 31 1007.8
20260901063704 67 240 2.0 7.0 0.00 0.00 0.00 31 1007.8
20260901063603 67 233 2.0 7.0 0.00 0.00 0.00 30 1007.9
20260901063504 67 0 0.0 7.0 0.00 0.00 0.00 30 1007.8
20260901063404 67 0 0.0 7.0 0.00 0.00 0.00 30 1007.9
20260901063304 67 204 1.0 7.0 0.00 0.00 0.00 30 1007.8
20260901062803 68 102 1.0 4.0 0.00 0.00 0.00 27 1007.9
20260901062703 68 99 1.0 5.0 0.00 0.00 0.00 27 1007.9
20260901062604 68 95 1.0 5.0 0.00 0.00 0.00 27 1007.9
20260901062504 68 93 1.0 5.0 0.00 0.00 0.00 27 1007.8
20260901062403 68 90 2.0 7.0 0.00 0.00 0.00 26 1007.9
20260901062309 68 90 2.0 7.0 0.00 0.00 0.00 26 1007.9
20260901062204 68 90 2.0 7.0 0.00 0.00 0.00 26 1007.9
20260901062103 68 90 2.0 7.0 0.00 0.00 0.00 26 1007.8
20260901062003 68 90 2.0 7.0 0.00 0.00 0.00 26 1007.8
20260901061904 68 90 3.0 7.0 0.00 0.00 0.00 27 1007.8
20260901061804 68 90 2.0 7.0 0.00 0.00 0.00 27 1007.9
20260901061104 68 88 3.0 5.0 0.00 0.00 0.00 28 1007.8
20260901061004 68 88 4.0 5.0 0.00 0.00 0.00 28 1007.9
20260901060904 68 85 4.0 5.0 0.00 0.00 0.00 28 1007.9
20260901060803 68 85 3.0 5.0 0.00 0.00 0.00 28 1007.9
20260901060704 68 87 4.0 5.0 0.00 0.00 0.00 28 1007.9
20260901060504 68 84 4.0 5.0 0.00 0.00 0.00 28 1007.9
20260901060404 68 84 4.0 5.0 0.00 0.00 0.00 28 1007.9
20260901060304 68 83 4.0 5.0 0.00 0.00 0.00 28 1007.9
20260901060204 68 83 4.0 5.0 0.00 0.00 0.00 28 1007.9
20260901060104 68 83 4.0 5.0 0.00 0.00 0.00 28 1007.8
20260901060004 68 83 4.0 5.0 0.00 0.00 0.00 28 1007.9
20260901055904 68 87 4.0 6.0 0.00 0.00 0.00 28 1007.8
20260901055804 68 82 4.0 8.0 0.00 0.00 0.00 28 1007.8
20260901055704 68 82 3.0 8.0 0.00 0.00 0.00 28 1007.8
20260901055603 68 81 3.0 8.0 0.00 0.00 0.00 28 1007.9
20260901055504 68 85 2.0 8.0 0.00 0.00 0.00 28 1007.9
20260901055404 68 85 2.0 8.0 0.00 0.00 0.00 28 1007.9
20260901055306 68 86 3.0 8.0 0.00 0.00 0.00 28 1008.0
20260901055203 68 86 4.0 8.0 0.00 0.00 0.00 28 1007.9
20260901055104 69 86 4.0 8.0 0.00 0.00 0.00 28 1007.9
20260901055004 68 86 4.0 8.0 0.00 0.00 0.00 28 1007.9
20260901054904 68 83 4.0 8.0 0.00 0.00 0.00 28 1008.0
20260901054803 68 83 5.0 8.0 0.00 0.00 0.00 29 1008.0
20260901054704 68 83 4.0 8.0 0.00 0.00 0.00 29 1008.1
20260901054604 68 82 4.0 8.0 0.00 0.00 0.00 29 1008.1
20260901054504 68 82 5.0 8.0 0.00 0.00 0.00 29 1008.0
20260901054404 68 81 5.0 8.0 0.00 0.00 0.00 29 1008.0
20260901054304 68 81 6.0 8.0 0.00 0.00 0.00 30 1008.1
20260901054204 68 81 5.0 7.0 0.00 0.00 0.00 30 1008.0
20260901054104 67 81 5.0 8.0 0.00 0.00 0.00 30 1008.0
20260901054004 67 80 4.0 8.0 0.00 0.00 0.00 30 1008.0
20260901053903 67 85 4.0 8.0 0.00 0.00 0.00 30 1008.0
20260901053804 67 91 4.0 8.0 0.00 0.00 0.00 30 1008.0
20260901053704 67 94 3.0 8.0 0.00 0.00 0.00 31 1008.1
20260901053604 67 96 4.0 8.0 0.00 0.00 0.00 31 1008.0
20260901053504 67 96 4.0 8.0 0.00 0.00 0.00 31 1008.1
20260901053403 67 97 4.0 8.0 0.00 0.00 0.00 31 1008.0
20260901053304 66 97 4.0 8.0 0.00 0.00 0.00 32 1008.1
20260901053204 66 98 4.0 8.0 0.00 0.00 0.00 32 1008.0
20260901053104 66 99 2.0 4.0 0.00 0.00 0.00 32 1007.9
20260901053004 66 96 1.0 3.0 0.00 0.00 0.00 32 1008.0
20260901052903 66 0 0.0 3.0 0.00 0.00 0.00 32 1008.0
20260901052307 66 73 2.0 3.0 0.00 0.00 0.00 32 1007.8
20260901052204 66 73 2.0 3.0 0.00 0.00 0.00 32 1007.9
20260901052104 66 78 2.0 3.0 0.00 0.00 0.00 32 1007.8
20260901051804 67 82 2.0 4.0 0.00 0.00 0.00 32 1007.9
20260901051703 67 82 2.0 4.0 0.00 0.00 0.00 32 1007.9
20260901051604 67 77 2.0 6.0 0.00 0.00 0.00 32 1007.8
20260901051503 67 72 2.0 6.0 0.00 0.00 0.00 31 1007.8
20260901051403 67 68 2.0 6.0 0.00 0.00 0.00 32 1007.9
20260901051304 67 61 2.0 6.0 0.00 0.00 0.00 31 1007.8
20260901051103 67 52 1.0 6.0 0.00 0.00 0.00 32 1007.8
20260901051003 67 49 1.0 6.0 0.00 0.00 0.00 32 1007.8
20260901050904 67 49 2.0 6.0 0.00 0.00 0.00 32 1007.9
20260901050804 67 50 3.0 6.0 0.00 0.00 0.00 32 1007.6
20260901050703 66 50 4.0 6.0 0.00 0.00 0.00 34 1007.7
20260901050603 66 51 4.0 6.0 0.00 0.00 0.00 34 1007.8
20260901050504 66 54 4.0 6.0 0.00 0.00 0.00 34 1007.7
20260901050404 66 54 4.0 6.0 0.00 0.00 0.00 34 1007.8
20260901050304 66 55 4.0 6.0 0.00 0.00 0.00 34 1007.8
20260901050103 66 50 4.0 6.0 0.00 0.00 0.00 34 1007.7
20260901050004 66 46 4.0 6.0 0.00 0.00 0.00 34 1007.7
20260901045904 66 38 2.0 5.0 0.00 0.00 0.00 34 1007.7
20260901045803 66 19 2.0 5.0 0.00 0.00 0.00 34 1007.7
20260901045703 66 6 2.0 5.0 0.00 0.00 0.00 34 1007.7
20260901045604 66 1 2.0 5.0 0.00 0.00 0.00 34 1007.7
20260901045504 66 356 2.0 5.0 0.00 0.00 0.00 34 1007.7
20260901045403 66 356 2.0 5.0 0.00 0.00 0.00 34 1007.7
20260901045306 66 357 2.0 5.0 0.00 0.00 0.00 33 1007.6
20260901045204 66 5 2.0 5.0 0.00 0.00 0.00 33 1007.7
20260901045104 67 22 1.0 5.0 0.00 0.00 0.00 33 1007.6
20260901045003 67 47 2.0 5.0 0.00 0.00 0.00 32 1007.8
20260901044904 67 71 3.0 5.0 0.00 0.00 0.00 32 1007.6
20260901044804 67 88 2.0 4.0 0.00 0.00 0.00 32 1007.6
20260901044704 67 0 0.0 3.0 0.00 0.00 0.00 32 1007.7
20260901044603 67 98 1.0 4.0 0.00 0.00 0.00 32 1007.7
20260901044506 68 97 1.0 4.0 0.00 0.00 0.00 32 1007.7
20260901044403 68 97 2.0 4.0 0.00 0.00 0.00 32 1007.6
20260901044304 68 97 2.0 4.0 0.00 0.00 0.00 32 1007.6
20260901044204 68 97 2.0 4.0 0.00 0.00 0.00 31 1007.7
20260901044104 68 97 2.0 4.0 0.00 0.00 0.00 31 1007.7
20260901043904 68 0 0.0 4.0 0.00 0.00 0.00 31 1007.7
20260901043803 68 0 0.0 4.0 0.00 0.00 0.00 31 1007.6
20260901043703 68 91 1.0 4.0 0.00 0.00 0.00 31 1007.6
20260901043604 68 90 2.0 4.0 0.00 0.00 0.00 31 1007.6
20260901043504 69 90 3.0 4.0 0.00 0.00 0.00 31 1007.6
20260901042903 69 98 1.0 2.0 0.00 0.00 0.00 30 1007.6
20260901042804 70 97 1.0 4.0 0.00 0.00 0.00 31 1007.7
20260901042704 70 99 1.0 4.0 0.00 0.00 0.00 30 1007.7
20260901042603 70 104 1.0 4.0 0.00 0.00 0.00 30 1007.6
20260901042504 70 104 2.0 4.0 0.00 0.00 0.00 30 1007.7
20260901042404 70 102 1.0 4.0 0.00 0.00 0.00 30 1007.6
20260901042203 71 0 0.0 4.0 0.00 0.00 0.00 29 1007.6
20260901042104 71 0 0.0 4.0 0.00 0.00 0.00 29 1007.6
20260901042004 71 106 1.0 4.0 0.00 0.00 0.00 29 1007.6
20260901041903 71 110 2.0 4.0 0.00 0.00 0.00 29 1007.6
20260901041804 71 118 1.0 3.0 0.00 0.00 0.00 28 1007.5
20260901041704 71 123 1.0 3.0 0.00 0.00 0.00 28 1007.5
20260901041603 72 123 1.0 3.0 0.00 0.00 0.00 28 1007.5
20260901041503 72 130 2.0 3.0 0.00 0.00 0.00 27 1007.5
20260901041404 72 131 2.0 3.0 0.00 0.00 0.00 27 1007.7
20260901041304 72 0 0.0 2.0 0.00 0.00 0.00 27 1007.6
20260901041203 72 0 0.0 2.0 0.00 0.00 0.00 27 1007.6
20260901041104 72 135 1.0 2.0 0.00 0.00 0.00 27 1007.6
20260901040603 73 156 1.0 4.0 0.00 0.00 0.00 25 1007.6
20260901040503 74 176 1.0 4.0 0.00 0.00 0.00 24 1007.6
20260901040404 74 191 1.0 5.0 0.00 0.00 0.00 24 1007.5
20260901040304 74 202 1.0 5.0 0.00 0.00 0.00 24 1007.5
20260901040204 74 209 1.0 5.0 0.00 0.00 0.00 24 1007.4
20260901040104 74 215 1.0 5.0 0.00 0.00 0.00 24 1007.5
20260901040003 74 219 1.0 5.0 0.00 0.00 0.00 24 1007.6
20260901035904 74 0 0.0 5.0 0.00 0.00 0.00 23 1007.5
20260901035804 74 229 2.0 5.0 0.00 0.00 0.00 23 1007.4
20260901035703 74 228 2.0 5.0 0.00 0.00 0.00 23 1007.5
20260901035603 74 229 2.0 5.0 0.00 0.00 0.00 23 1007.5
20260901035504 75 229 3.0 6.0 0.00 0.00 0.00 23 1007.4
20260901035403 75 228 3.0 6.0 0.00 0.00 0.00 23 1007.4
20260901035305 75 230 2.0 8.0 0.00 0.00 0.00 22 1007.5
20260901035204 75 239 2.0 9.0 0.00 0.00 0.00 22 1007.4
20260901035103 75 249 2.0 9.0 0.00 0.00 0.00 22 1007.4
20260901035004 76 260 2.0 9.0 0.00 0.00 0.00 22 1007.4
20260901034904 76 259 2.0 9.0 0.00 0.00 0.00 22 1007.4
20260901034803 76 256 2.0 9.0 0.00 0.00 0.00 22 1007.4
20260901034704 76 261 2.0 9.0 0.00 0.00 0.00 22 1007.3
20260901034604 76 262 2.0 9.0 0.00 0.00 0.00 22 1007.4
20260901034504 76 261 3.0 9.0 0.00 0.00 0.00 22 1007.4
20260901034403 76 268 3.0 10.0 0.00 0.00 0.00 22 1007.4
20260901034304 76 266 5.0 10.0 0.00 0.00 0.00 22 1007.4
20260901034204 76 254 8.0 11.0 0.00 0.00 0.00 22 1007.3
20260901034104 76 247 4.0 11.0 0.00 0.00 0.00 22 1007.4
20260901034004 75 238 4.0 11.0 0.00 0.00 0.00 22 1007.4
20260901033904 75 236 4.0 11.0 0.00 0.00 0.00 22 1007.4
20260901033804 75 235 4.0 11.0 0.00 0.00 0.00 22 1007.4
20260901033704 75 236 5.0 11.0 0.00 0.00 0.00 23 1007.4
20260901033203 75 233 7.0 11.0 0.00 0.00 0.00 23 1007.4
20260901033103 75 234 4.0 9.0 0.00 0.00 0.00 23 1007.3
20260901033004 75 234 4.0 9.0 0.00 0.00 0.00 23 1007.3
20260901032904 75 236 4.0 9.0 0.00 0.00 0.00 24 1007.4
20260901032803 75 239 6.0 9.0 0.00 0.00 0.00 24 1007.4
20260901032703 75 236 4.0 9.0 0.00 0.00 0.00 24 1007.4
20260901032604 74 235 5.0 9.0 0.00 0.00 0.00 24 1007.3
20260901032504 74 232 5.0 9.0 0.00 0.00 0.00 24 1007.4
20260901032403 74 238 6.0 9.0 0.00 0.00 0.00 24 1007.2
20260901032306 74 253 1.0 4.0 0.00 0.00 0.00 25 1007.3
20260901032204 74 269 1.0 4.0 0.00 0.00 0.00 25 1007.3
20260901032104 74 254 1.0 4.0 0.00 0.00 0.00 25 1007.3
20260901032004 74 328 2.0 4.0 0.00 0.00 0.00 25 1007.4
20260901031904 75 12 1.0 4.0 0.00 0.00 0.00 25 1007.3
20260901031803 75 32 1.0 4.0 0.00 0.00 0.00 25 1007.3
20260901031703 75 0 0.0 4.0 0.00 0.00 0.00 25 1007.3
20260901031604 75 0 0.0 4.0 0.00 0.00 0.00 25 1007.3
20260901031104 75 36 2.0 3.0 0.00 0.00 0.00 25 1007.2
20260901031003 75 51 2.0 3.0 0.00 0.00 0.00 25 1007.4
20260901030904 75 53 1.0 2.0 0.00 0.00 0.00 25 1007.3
20260901030803 75 0 0.0 2.0 0.00 0.00 0.00 25 1007.2
20260901030704 76 0 0.0 2.0 0.00 0.00 0.00 24 1007.2
20260901030604 76 0 0.0 2.0 0.00 0.00 0.00 24 1007.2
20260901030503 76 0 0.0 2.0 0.00 0.00 0.00 24 1007.1
20260901030403 76 0 0.0 2.0 0.00 0.00 0.00 24 1007.2
20260901030304 76 0 0.0 2.0 0.00 0.00 0.00 24 1007.2
20260901030204 76 0 0.0 2.0 0.00 0.00 0.00 24 1007.2
20260901030103 76 0 0.0 2.0 0.00 0.00 0.00 24 1007.1
20260901030004 76 0 0.0 3.0 0.00 0.00 0.00 24 1007.2
20260901025904 76 0 0.0 7.0 0.00 0.00 0.00 24 1007.1
20260901025804 76 0 0.0 7.0 0.00 0.00 0.00 24 1007.2
20260901025703 76 0 0.0 7.0 0.00 0.00 0.00 24 1007.2
20260901025603 76 0 0.0 8.0 0.00 0.00 0.00 24 1007.1
20260901025404 76 275 1.0 11.0 0.00 0.00 0.00 24 1007.0
20260901025306 77 274 1.0 11.0 0.00 0.00 0.00 24 1007.0
20260901025204 77 271 1.0 14.0 0.00 0.00 0.00 24 1007.0
20260901025104 77 272 1.0 14.0 0.00 0.00 0.00 24 1007.0
20260901025004 77 272 1.0 14.0 0.00 0.00 0.00 24 1007.1
20260901024904 77 271 4.0 14.0 0.00 0.00 0.00 24 1007.0
20260901024803 77 272 2.0 14.0 0.00 0.00 0.00 24 1007.0
20260901024703 77 273 4.0 14.0 0.00 0.00 0.00 24 1007.1
20260901024603 77 273 5.0 14.0 0.00 0.00 0.00 24 1007.0
20260901024504 77 273 7.0 14.0 0.00 0.00 0.00 24 1007.1
20260901024404 77 273 6.0 14.0 0.00 0.00 0.00 24 1006.9
20260901024303 77 273 8.0 14.0 0.00 0.00 0.00 23 1007.1
20260901024203 77 274 11.0 14.0 0.00 0.00 0.00 23 1007.0
20260901024104 77 272 8.0 14.0 0.00 0.00 0.00 23 1007.0
20260901024004 77 270 9.0 14.0 0.00 0.00 0.00 23 1007.0
20260901023903 77 270 10.0 14.0 0.00 0.00 0.00 23 1006.9
20260901023804 78 272 6.0 11.0 0.00 0.00 0.00 23 1006.9
20260901023704 78 272 3.0 5.0 0.00 0.00 0.00 23 1007.1
20260901023603 78 272 3.0 7.0 0.00 0.00 0.00 23 1007.1
20260901023504 78 272 3.0 7.0 0.00 0.00 0.00 23 1007.1
20260901023404 78 272 3.0 7.0 0.00 0.00 0.00 23 1007.1
20260901023203 78 272 3.0 7.0 0.00 0.00 0.00 23 1007.2
20260901023104 78 272 3.0 7.0 0.00 0.00 0.00 23 1007.2
20260901023004 78 276 3.0 7.0 0.00 0.00 0.00 23 1007.1
20260901022903 78 277 3.0 7.0 0.00 0.00 0.00 23 1007.1
20260901022803 78 275 2.0 8.0 0.00 0.00 0.00 23 1007.1
20260901022704 78 274 3.0 8.0 0.00 0.00 0.00 23 1007.0
20260901022604 78 274 4.0 8.0 0.00 0.00 0.00 23 1006.9
20260901022503 78 274 2.0 8.0 0.00 0.00 0.00 23 1006.9
20260901022404 78 274 2.0 8.0 0.00 0.00 0.00 23 1006.9
20260901022306 78 274 4.0 8.0 0.00 0.00 0.00 23 1006.9
20260901022203 78 274 4.0 8.0 0.00 0.00 0.00 23 1007.0
20260901022103 78 274 3.0 8.0 0.00 0.00 0.00 22 1007.0
20260901022004 78 270 4.0 8.0 0.00 0.00 0.00 22 1006.8
20260901021904 79 272 5.0 12.0 0.00 0.00 0.00 22 1006.9
20260901021803 79 275 4.0 12.0 0.00 0.00 0.00 22 1006.9
20260901021703 79 275 4.0 12.0 0.00 0.00 0.00 22 1006.9
20260901021604 79 278 2.0 12.0 0.00 0.00 0.00 22 1006.8
20260901021504 79 278 2.0 12.0 0.00 0.00 0.00 22 1006.9
20260901021403 79 277 4.0 12.0 0.00 0.00 0.00 22 1006.9
20260901021304 79 277 5.0 12.0 0.00 0.00 0.00 21 1006.9
20260901021204 79 281 4.0 12.0 0.00 0.00 0.00 21 1006.9
20260901021103 79 283 3.0 12.0 0.00 0.00 0.00 21 1006.9
20260901021003 79 287 5.0 12.0 0.00 0.00 0.00 21 1006.9
20260901020904 79 285 8.0 12.0 0.00 0.00 0.00 21 1006.9
20260901020804 79 284 4.0 11.0 0.00 0.00 0.00 21 1006.8
20260901020703 79 288 5.0 11.0 0.00 0.00 0.00 21 1006.8
20260901020603 80 286 6.0 11.0 0.00 0.00 0.00 21 1006.8
20260901020504 80 286 5.0 11.0 0.00 0.00 0.00 21 1006.8
20260901020403 80 286 4.0 11.0 0.00 0.00 0.00 21 1006.7
20260901020303 80 286 6.0 11.0 0.00 0.00 0.00 20 1006.7
20260901020203 80 281 6.0 13.0 0.00 0.00 0.00 20 1006.7
20260901020104 80 279 4.0 13.0 0.00 0.00 0.00 20 1006.7
20260901020004 80 275 4.0 13.0 0.00 0.00 0.00 20 1006.7
20260901015804 81 277 4.0 15.0 0.00 0.00 0.00 19 1006.7
20260901015704 81 275 5.0 15.0 0.00 0.00 0.00 19 1006.7
20260901015603 81 273 5.0 15.0 0.00 0.00 0.00 19 1006.7
20260901015504 81 273 7.0 15.0 0.00 0.00 0.00 19 1006.7
20260901015403 81 273 6.0 15.0 0.00 0.00 0.00 18 1006.7
20260901015305 81 277 8.0 15.0 0.00 0.00 0.00 18 1006.7
20260901015204 81 277 8.0 15.0 0.00 0.00 0.00 18 1006.7
20260901015104 82 278 8.0 15.0 0.00 0.00 0.00 18 1006.6
20260901015004 82 278 8.0 15.0 0.00 0.00 0.00 18 1006.7
20260901014903 82 278 9.0 15.0 0.00 0.00 0.00 18 1006.7
20260901014804 82 273 8.0 15.0 0.00 0.00 0.00 17 1006.6
20260901014703 82 271 9.0 15.0 0.00 0.00 0.00 17 1006.7
20260901014604 83 271 7.0 15.0 0.00 0.00 0.00 17 1006.7
20260901014504 83 271 7.0 16.0 0.00 0.00 0.00 17 1006.7
20260901014403 83 266 6.0 16.0 0.00 0.00 0.00 17 1006.6
20260901014304 83 259 6.0 16.0 0.00 0.00 0.00 16 1006.6
20260901014204 83 256 5.0 16.0 0.00 0.00 0.00 16 1006.6
20260901014103 83 258 6.0 16.0 0.00 0.00 0.00 16 1006.6
20260901014003 83 258 5.0 16.0 0.00 0.00 0.00 16 1006.6
20260901013904 83 256 6.0 16.0 0.00 0.00 0.00 16 1006.7
20260901013703 83 260 8.0 16.0 0.00 0.00 0.00 15 1006.5
20260901013603 83 256 10.0 16.0 0.00 0.00 0.00 15 1006.6
20260901013504 83 258 13.0 16.0 0.00 0.00 0.00 15 1006.6
20260901013404 84 264 11.0 15.0 0.00 0.00 0.00 15 1006.4
20260901013303 84 262 9.0 15.0 0.00 0.00 0.00 15 1006.5
20260901013204 84 264 9.0 15.0 0.00 0.00 0.00 15 1006.7
20260901012503 84 266 8.0 15.0 0.00 0.00 0.00 15 1006.5
20260901012404 84 270 8.0 17.0 0.00 0.00 0.00 15 1006.5
20260901012306 84 276 11.0 17.0 0.00 0.00 0.00 15 1006.6
20260901012203 84 280 10.0 17.0 0.00 0.00 0.00 15 1006.5
20260901012104 84 283 10.0 17.0 0.00 0.00 0.00 15 1006.5
20260901012004 84 283 9.0 19.0 0.00 0.00 0.00 15 1006.5
20260901011903 84 285 8.0 19.0 0.00 0.00 0.00 15 1006.6
20260901011803 84 287 10.0 19.0 0.00 0.00 0.00 15 1006.5
20260901011704 84 284 10.0 19.0 0.00 0.00 0.00 15 1006.5
20260901011604 84 280 11.0 19.0 0.00 0.00 0.00 15 1006.6
20260901011503 84 274 11.0 19.0 0.00 0.00 0.00 15 1006.6
20260901011303 84 270 11.0 19.0 0.00 0.00 0.00 15 1006.5
20260901011204 84 270 11.0 19.0 0.00 0.00 0.00 15 1006.5
20260901011104 84 273 12.0 19.0 0.00 0.00 0.00 15 1006.5
20260901011004 84 281 12.0 19.0 0.00 0.00 0.00 15 1006.6
20260901010903 84 280 11.0 18.0 0.00 0.00 0.00 15 1006.6
20260901010704 84 281 15.0 18.0 0.00 0.00 0.00 15 1006.5
20260901010603 84 281 11.0 17.0 0.00 0.00 0.00 16 1006.6
20260901010504 84 283 11.0 17.0 0.00 0.00 0.00 16 1006.6
20260901010404 84 285 11.0 17.0 0.00 0.00 0.00 15 1006.6
20260901010304 85 284 9.0 17.0 0.00 0.00 0.00 15 1006.6
20260901010204 84 277 11.0 17.0 0.00 0.00 0.00 15 1006.5
20260901010103 85 273 11.0 17.0 0.00 0.00 0.00 14 1006.6
20260901010004 85 270 11.0 17.0 0.00 0.00 0.00 14 1006.6
20260901005904 85 270 11.0 17.0 0.00 0.00 0.00 14 1006.6
20260901005803 85 270 12.0 17.0 0.00 0.00 0.00 14 1006.5
20260901005703 85 274 12.0 20.0 0.00 0.00 0.00 14 1006.5
20260901005604 85 274 9.0 20.0 0.00 0.00 0.00 14 1006.6
20260901005504 85 274 7.0 20.0 0.00 0.00 0.00 14 1006.5
20260901005403 85 279 9.0 20.0 0.00 0.00 0.00 14 1006.5
20260901005306 85 280 7.0 20.0 0.00 0.00 0.00 14 1006.5
20260901005204 85 282 8.0 20.0 0.00 0.00 0.00 14 1006.5
20260901005104 85 288 6.0 20.0 0.00 0.00 0.00 14 1006.7
20260901005003 85 286 6.0 20.0 0.00 0.00 0.00 14 1006.5
20260901004903 85 290 8.0 20.0 0.00 0.00 0.00 14 1006.7
20260901004804 85 293 8.0 20.0 0.00 0.00 0.00 14 1006.6
20260901004304 86 285 8.0 17.0 0.00 0.00 0.00 13 1006.6
20260901004203 86 283 8.0 17.0 0.00 0.00 0.00 13 1006.5
20260901004104 86 282 10.0 17.0 0.00 0.00 0.00 13 1006.5
20260901004004 86 279 8.0 16.0 0.00 0.00 0.00 13 1006.6
20260901003903 86 277 9.0 16.0 0.00 0.00 0.00 13 1006.6
20260901003803 86 279 10.0 16.0 0.00 0.00 0.00 13 1006.6
20260901003704 86 282 8.0 16.0 0.00 0.00 0.00 13 1006.6
20260901003603 86 287 8.0 17.0 0.00 0.00 0.00 13 1006.7
20260901003504 86 294 8.0 17.0 0.00 0.00 0.00 12 1006.7
20260901003403 87 294 8.0 17.0 0.00 0.00 0.00 12 1006.7
20260901003303 87 295 8.0 21.0 0.00 0.00 0.00 12 1006.6
20260901003204 87 300 8.0 21.0 0.00 0.00 0.00 12 1006.7
20260901003103 87 300 10.0 21.0 0.00 0.00 0.00 12 1006.7
20260901003004 87 305 10.0 21.0 0.00 0.00 0.00 12 1006.7
20260901002904 87 307 8.0 21.0 0.00 0.00 0.00 12 1006.7
20260901002803 87 307 11.0 21.0 0.00 0.00 0.00 11 1006.7
20260901002704 87 307 11.0 21.0 0.00 0.00 0.00 12 1006.7
20260901002603 87 304 11.0 21.0 0.00 0.00 0.00 11 1006.6
20260901002503 87 299 8.0 21.0 0.00 0.00 0.00 11 1006.6
20260901002404 87 298 9.0 21.0 0.00 0.00 0.00 11 1006.5
20260901002305 87 300 11.0 21.0 0.00 0.00 0.00 11 1006.6
20260901002203 87 295 8.0 19.0 0.00 0.00 0.00 11 1006.6
20260901002003 87 284 10.0 19.0 0.00 0.00 0.00 10 1006.7
20260901001904 88 278 13.0 19.0 0.00 0.00 0.00 10 1006.7
20260901001803 88 272 12.0 17.0 0.00 0.00 0.00 10 1006.7
20260901001703 88 269 10.0 17.0 0.00 0.00 0.00 10 1006.6
20260901001604 88 268 10.0 16.0 0.00 0.00 0.00 10 1006.6
20260901001504 88 270 10.0 17.0 0.00 0.00 0.00 10 1006.6